GFSCGP_850_rhum_000.txt.gz
RH
17 13 17 19 19 17 16 16 16 15 20 26 23 16 16 18 18 18 19 17 20 27 34 40 40 25 28 34 53 57 52 27 31 40 40 40 42 43 46 48 39 41 43 43
14 20 19 20 20 18 18 18 18 20 22 26 20 18 16 18 21 22 20 20 22 24 27 32 31 32 44 54 54 50 37 31 32 38 34 37 40 49 41 47 42 42 41 37
17 20 20 20 23 24 22 21 26 26 23 24 22 21 19 18 20 21 22 23 24 24 27 31 37 37 36 35 37 36 32 32 34 40 48 49 48 48 48 47 43 35 32 24
20 23 25 23 28 28 24 25 31 29 28 22 24 22 25 19 20 20 23 25 27 27 28 31 34 40 32 30 31 32 37 42 42 41 44 42 51 49 42 47 52 38 30 17
26 26 27 28 30 30 32 34 32 32 28 29 26 21 27 22 23 23 24 28 30 33 37 41 44 46 49 46 42 44 52 47 42 42 44 48 46 55 58 58 52 44 40 30
27 28 27 29 28 29 31 33 33 33 33 39 33 29 30 28 28 25 28 35 38 40 38 46 48 49 52 56 46 46 50 51 43 45 45 41 50 65 60 52 47 43 47 47
28 30 29 33 28 29 26 29 35 46 44 40 34 31 36 30 28 30 34 38 43 47 46 45 47 48 54 53 44 45 45 54 55 55 53 51 46 55 55 54 52 56 52 53
33 37 35 34 36 36 35 36 47 49 46 37 31 31 33 29 32 35 37 41 42 45 47 47 47 49 56 52 45 45 50 59 59 53 47 40 54 63 61 62 59 55 58 61
39 37 33 35 33 34 35 43 39 54 78 63 33 34 32 30 30 32 35 39 42 43 45 46 48 51 57 64 65 54 51 54 57 56 63 53 69 70 57 44 54 66 62 73
42 43 36 33 35 35 34 36 42 39 69 42 24 27 26 37 33 32 33 38 42 43 44 45 46 53 59 60 62 55 59 69 71 73 66 70 58 59 51 66 75 76 83 90
35 39 36 38 39 39 40 42 41 37 47 49 51 29 31 31 30 32 34 35 40 45 45 47 50 53 56 65 69 73 77 79 76 68 67 69 71 71 74 79 84 89 91 87
43 46 36 34 40 40 38 40 38 43 47 53 60 46 29 29 30 34 35 37 42 49 48 49 52 57 64 70 74 76 79 69 55 54 69 76 75 76 79 87 94 100 100 99
42 47 35 37 43 39 43 40 42 48 55 61 72 46 27 30 28 32 40 43 48 49 47 49 53 60 67 69 72 66 57 55 66 61 69 72 83 86 92 97 98 100 99 98
48 46 42 29 30 34 36 34 37 42 66 53 50 40 31 28 31 34 42 50 48 50 52 58 68 68 70 72 68 56 66 72 55 56 75 78 87 98 82 81 94 96 97 97
48 49 49 41 38 37 42 42 38 42 46 60 48 39 34 34 36 42 49 51 52 56 65 67 68 72 69 71 74 83 85 58 50 77 78 82 84 83 79 76 75 74 70 60
52 56 65 59 48 41 49 41 40 43 44 46 45 45 36 40 47 50 52 54 59 68 72 77 79 66 61 64 76 90 74 73 68 85 80 76 75 70 65 66 61 55 54 56
61 69 74 83 61 62 78 51 39 38 41 41 50 38 42 45 52 56 59 63 76 88 84 72 78 59 62 70 90 74 70 79 88 80 74 75 76 62 60 54 49 52 56 61
94 81 90 96 91 83 45 34 36 41 39 33 36 42 50 53 55 55 75 86 98 97 83 67 60 56 62 73 75 72 71 77 78 76 74 79 71 61 54 52 54 57 58 62
66 84 99 96 70 51 43 40 42 44 45 40 48 54 60 59 55 58 93 92 97 91 74 64 58 57 62 72 73 74 71 73 73 73 78 85 69 67 54 54 58 61 65 67
70 78 87 88 94 83 46 39 46 46 56 56 73 85 86 66 82 90 90 98 78 69 62 55 48 53 67 78 74 79 77 73 71 77 89 74 73 65 58 60 63 68 67 70
94 94 92 86 92 67 42 48 52 82 78 76 86 91 93 86 98 99 97 78 56 54 53 51 47 48 59 67 74 81 72 67 65 70 73 76 74 62 63 63 65 69 72 87
63 83 94 93 98 95 48 48 82 66 78 91 92 89 84 90 94 75 58 50 47 51 50 46 47 49 56 66 74 75 62 58 69 70 70 76 71 66 68 67 68 74 79 93
63 55 55 64 64 44 49 60 68 78 86 92 94 86 90 81 62 50 47 46 47 50 48 47 54 60 59 63 74 71 58 70 80 72 71 72 71 73 71 71 78 81 84 95
50 53 69 70 56 52 65 66 82 95 94 94 89 79 71 60 50 48 46 46 49 46 48 56 57 57 63 67 86 85 81 85 81 68 69 71 73 76 80 81 84 80 96 99
54 54 61 73 67 68 63 85 94 91 91 82 80 69 58 48 47 46 46 44 44 48 54 58 59 61 60 64 92 95 96 80 67 64 69 78 87 91 91 86 85 96 100 93
56 53 84 96 76 76 80 88 92 99 90 72 63 54 49 48 50 47 42 44 48 51 60 61 64 70 70 74 84 95 86 86 54 53 80 89 84 99 100 86 88 93 94 81

GFSCGP_850_rhum_003.txt.gz
RH
12 12 15 15 14 12 11 11 11 11 13 14 15 11 13 14 14 14 13 14 14 14 22 35 34 36 40 46 40 40 49 50 47 44 43 39 39 42 46 48 54 60 58 53
11 17 15 15 15 15 14 14 14 14 14 15 14 13 14 15 16 15 15 17 20 25 28 32 35 38 37 48 46 50 52 47 41 40 46 47 46 49 52 50 51 51 55 50
15 17 17 17 17 18 17 17 21 20 16 14 15 16 16 15 16 17 19 20 20 22 26 32 37 45 50 51 49 46 47 51 50 46 46 47 46 45 45 48 51 53 60 54
17 18 19 19 21 21 21 20 22 21 20 19 15 18 18 16 17 18 21 23 22 23 25 27 33 40 50 52 51 50 50 49 50 41 51 55 54 53 57 56 57 56 52 47
22 21 22 23 24 23 26 25 24 22 21 19 17 16 24 16 19 20 23 25 27 29 31 34 38 42 48 56 58 54 52 53 55 55 59 62 64 67 68 65 58 54 46 48
21 21 22 24 22 23 23 25 24 25 22 30 23 21 23 21 23 23 26 30 31 31 36 38 41 44 51 57 58 56 50 52 58 57 62 62 55 55 61 54 53 48 53 51
22 24 23 25 24 23 20 23 34 39 36 36 24 21 29 24 23 24 28 30 35 38 37 37 39 42 50 53 56 53 51 49 52 59 58 55 54 56 56 56 55 59 54 54
25 36 26 24 28 29 25 28 44 41 38 30 23 22 27 23 26 28 29 32 35 39 42 42 43 46 48 52 54 60 58 55 50 56 56 57 58 60 60 62 65 63 62 61
29 31 25 26 25 25 28 33 27 44 55 53 22 21 24 24 25 26 29 32 34 37 39 42 42 45 52 53 54 60 61 58 59 63 61 62 62 64 67 68 67 64 66 63
27 35 25 25 26 27 29 26 38 32 58 36 19 17 27 31 26 26 25 29 32 36 37 38 40 43 49 50 53 57 64 62 63 63 62 62 66 69 65 64 65 68 68 69
24 27 29 26 30 30 30 33 32 25 35 44 40 27 25 25 26 27 28 28 30 32 36 38 42 46 49 49 56 60 64 70 65 64 67 68 68 65 64 64 68 80 90 86
33 32 34 24 30 31 29 31 29 40 37 39 49 44 23 24 24 27 29 31 34 37 40 41 42 46 51 58 59 62 71 77 74 73 68 62 63 66 63 69 82 88 94 100
33 38 35 29 36 31 31 30 29 37 45 52 66 44 25 27 28 25 29 36 36 42 46 48 52 53 56 58 66 76 82 83 83 74 66 62 64 67 74 80 83 87 87 84
43 33 34 36 26 24 29 25 24 30 50 47 44 34 25 24 26 28 31 38 46 49 51 54 58 59 61 70 72 74 75 82 83 74 68 63 68 70 69 70 71 68 65 61
37 43 38 33 26 25 27 29 27 27 29 46 42 34 29 28 31 34 37 40 45 49 55 63 63 62 66 59 59 61 77 79 75 78 71 69 64 63 59 59 60 58 54 50
38 52 54 49 31 28 33 27 25 26 31 30 31 33 29 32 33 37 47 52 52 60 73 75 63 61 59 54 54 56 68 61 66 78 66 65 63 64 61 57 53 46 45 47
50 55 56 69 51 54 77 45 28 28 27 35 43 33 29 35 48 56 61 59 67 77 79 68 64 55 51 46 46 50 54 57 67 63 62 58 64 72 62 58 47 45 46 50
70 63 85 93 88 87 40 26 27 31 31 27 27 30 38 50 52 56 72 76 75 72 74 62 53 46 39 38 41 47 53 52 52 55 58 58 73 76 64 58 50 47 49 54
49 69 89 94 62 46 38 35 36 41 43 29 39 48 56 58 55 54 72 69 75 73 59 48 42 38 35 34 38 43 46 46 50 58 67 76 73 84 71 56 52 50 52 56
57 68 75 88 92 81 48 33 38 38 54 52 56 62 78 66 72 52 63 69 66 49 39 39 40 38 34 33 36 41 42 45 55 56 52 61 70 80 76 59 50 52 52 59
90 91 92 79 93 61 35 40 43 66 70 64 73 81 73 66 65 71 69 52 42 37 36 36 34 33 34 39 41 42 40 45 59 52 56 69 77 74 63 48 50 52 57 71
67 89 95 84 94 84 40 42 74 54 54 74 85 84 74 79 65 56 47 40 37 36 35 32 31 34 38 38 41 44 38 46 66 67 68 66 67 62 47 51 51 57 62 80
52 49 56 58 53 35 48 71 68 64 71 83 87 89 90 65 50 46 41 38 37 35 31 31 32 38 38 42 43 43 61 77 84 91 86 70 59 50 49 55 54 59 65 88
40 34 56 60 44 41 53 61 68 84 84 88 91 83 59 52 46 41 40 39 35 32 33 33 37 40 43 46 49 53 83 96 83 79 68 62 56 62 64 60 59 62 82 97
46 42 50 57 44 47 55 75 78 76 86 90 78 62 55 47 43 42 40 35 35 37 37 41 43 43 46 52 59 63 78 81 79 84 67 68 70 70 70 66 70 78 94 92
46 44 65 71 55 68 74 83 77 74 76 79 59 54 49 46 44 39 36 37 39 40 43 41 41 46 54 63 72 81 89 90 92 84 75 80 92 84 85 76 78 88 87 86

GFSCGP_850_rhum_006.txt.gz
RH
11 13 18 16 14 11 10 9 10 12 12 12 11 12 12 12 12 13 13 13 13 15 26 35 38 35 36 41 41 42 56 49 50 50 46 42 41 42 46 50 53 52 51 52
10 17 14 12 12 12 11 12 12 12 12 12 13 12 13 14 15 15 15 17 22 27 31 34 37 40 43 48 55 54 55 48 43 42 45 46 46 47 49 51 49 52 56 58
20 17 13 13 15 16 14 16 22 20 16 13 13 15 16 15 16 18 20 20 23 26 32 37 46 51 52 50 47 48 50 49 46 45 48 50 49 48 48 47 51 56 58 61
17 15 16 16 19 20 20 21 21 19 19 20 13 20 18 17 19 20 22 23 23 24 27 33 43 52 53 50 48 50 50 49 44 42 41 45 52 55 58 55 64 56 58 52
20 20 20 21 22 20 24 22 21 20 21 19 16 21 22 17 20 23 24 25 28 32 33 37 42 50 57 58 55 53 52 53 53 53 56 64 67 64 55 55 57 55 53 52
19 18 21 22 20 19 21 23 21 22 24 42 19 22 33 23 23 25 26 29 30 32 36 39 43 49 56 59 58 55 47 50 51 56 62 61 52 52 57 59 58 58 57 52
21 22 21 20 24 22 19 24 46 59 52 51 24 22 32 24 24 24 26 30 35 37 36 37 39 44 50 53 54 55 57 56 52 51 54 57 58 60 61 62 63 63 52 65
25 38 23 20 24 25 24 25 60 53 61 44 20 21 32 24 25 26 28 30 33 38 40 41 42 45 47 50 51 54 59 59 57 58 61 62 64 64 66 67 67 61 67 66
28 31 22 22 22 21 29 34 23 42 56 61 25 28 26 24 25 25 27 29 31 34 37 39 40 43 46 48 48 52 56 63 62 63 64 64 63 67 73 68 64 65 71 72
23 34 21 20 23 24 24 21 38 48 61 44 25 27 43 30 28 25 24 26 28 33 36 40 39 42 45 49 52 56 59 64 67 67 64 63 67 68 68 66 65 68 73 72
24 27 28 24 28 28 28 30 29 25 41 52 51 33 22 26 25 26 26 27 29 32 35 39 44 48 51 54 57 59 61 69 71 73 73 69 66 64 67 64 68 76 74 59
28 30 48 25 24 23 24 28 26 61 43 53 57 42 24 26 31 30 30 34 36 41 46 48 53 54 55 58 61 67 72 75 76 75 76 69 64 64 67 70 76 72 78 83
34 40 51 36 35 27 26 26 25 39 55 56 75 50 26 39 34 30 30 37 44 46 47 51 58 59 58 58 62 64 67 72 71 76 74 70 66 66 70 68 65 70 66 64
44 30 33 44 28 23 26 22 21 25 66 56 53 37 30 43 37 31 33 41 45 47 54 59 63 63 59 58 58 56 56 59 67 70 70 68 72 67 63 61 61 60 59 54
35 42 38 33 26 24 25 25 24 26 28 45 39 31 28 31 31 47 50 50 53 58 60 64 68 61 58 55 52 49 48 51 63 74 77 60 64 64 61 63 62 59 51 47
36 61 58 51 27 28 34 28 26 24 24 27 30 32 28 41 45 50 55 57 61 62 64 60 61 56 51 49 43 40 39 43 56 68 63 67 76 65 67 71 65 60 49 49
51 65 70 72 56 62 81 52 28 27 26 30 45 34 36 44 48 47 56 61 64 61 60 63 54 48 42 37 34 34 35 36 44 48 52 66 86 81 76 78 73 64 56 49
68 70 89 90 89 82 37 26 26 30 27 26 26 33 44 49 52 50 66 69 61 63 63 54 41 38 38 37 34 32 34 36 37 39 48 75 78 73 78 77 82 82 55 50
44 76 92 98 67 49 39 35 39 44 46 31 39 48 53 56 53 54 62 64 59 55 44 35 34 36 34 32 34 37 38 39 39 39 55 70 73 76 63 80 79 68 50 53
54 72 84 93 87 76 45 34 38 38 61 51 58 61 64 58 74 58 64 59 48 39 34 32 33 31 30 33 36 36 38 39 39 61 66 85 81 82 83 84 71 57 52 59
90 83 92 90 86 70 36 35 41 63 72 62 70 69 70 66 77 75 55 47 38 35 33 32 28 30 32 35 36 38 39 40 58 78 83 86 92 79 78 68 53 52 55 60
83 92 94 81 86 80 39 39 63 61 63 67 68 72 78 80 83 55 46 40 36 34 32 29 30 31 34 36 38 41 44 49 69 71 89 85 81 70 70 58 54 54 57 65
56 62 69 67 71 43 42 48 58 67 71 74 79 77 76 77 65 48 42 38 37 34 31 32 33 36 37 40 41 46 54 60 74 72 79 79 72 70 63 58 56 59 64 72
34 30 70 62 44 38 42 44 69 75 75 72 77 80 78 59 50 44 40 38 35 34 35 36 39 39 40 41 46 56 64 69 80 81 82 80 71 65 66 65 65 68 72 71
50 40 47 55 42 42 50 73 77 80 74 82 78 70 54 48 45 43 38 36 36 37 39 42 41 40 47 49 57 68 76 76 90 86 85 72 73 77 78 78 76 81 84 85
48 44 64 72 51 62 69 80 77 79 79 72 66 54 50 48 43 37 37 39 38 40 41 42 45 51 57 64 71 75 85 85 83 82 67 76 83 81 80 89 88 85 86 91

GFSCGP_850_rhum_009.txt.gz
RH
15 26 26 17 15 14 14 15 21 18 13 13 13 18 20 20 19 17 27 33 37 38 39 40 42 42 43 50 66 71 59 62 57 58 55 51 49 46 49 51 52 52 50 49
19 25 15 15 17 18 15 24 28 18 14 13 14 18 22 21 23 25 29 34 36 40 45 48 51 53 55 60 64 69 62 51 48 47 47 46 46 47 42 41 48 49 53 55
27 18 14 15 25 25 27 29 27 24 20 17 17 23 24 22 22 24 25 30 33 36 43 46 50 51 49 51 50 50 50 47 45 46 45 44 42 45 48 49 52 55 48 44
20 15 19 22 26 25 34 28 26 24 27 30 19 37 27 28 31 30 30 32 35 44 46 47 45 47 49 51 50 49 46 44 42 41 45 51 56 60 62 66 57 56 51 52
24 28 30 29 25 23 30 23 26 25 31 29 27 38 28 28 36 34 31 31 34 38 43 48 47 47 49 49 48 49 50 49 52 52 57 61 65 54 53 60 60 59 58 56
22 21 24 25 22 20 22 29 32 30 36 59 36 41 48 43 36 36 33 33 34 36 38 42 45 48 49 48 49 53 54 57 55 55 60 59 59 59 60 60 61 61 62 60
27 28 23 21 29 25 29 42 72 67 74 70 41 42 48 38 34 35 41 38 38 40 40 44 49 50 50 52 53 55 55 55 55 56 61 62 63 62 63 65 66 65 57 54
42 46 28 25 28 29 34 38 74 64 81 67 27 48 46 33 30 30 32 33 37 39 41 42 41 42 46 48 51 53 54 56 62 62 63 65 65 65 68 73 80 62 63 67
44 38 26 23 22 27 35 43 25 60 61 80 47 40 33 31 31 30 29 32 39 40 40 40 47 51 54 51 54 56 58 61 63 66 67 66 68 68 82 86 67 66 68 73
28 40 23 21 24 25 29 24 55 64 63 52 42 50 59 42 41 32 31 32 34 39 42 46 50 51 52 54 55 56 58 62 70 72 74 72 69 69 74 68 67 68 72 75
38 43 32 26 33 36 38 42 37 39 62 74 80 53 39 44 42 42 37 44 46 47 49 50 52 54 57 57 57 59 60 62 64 64 60 62 69 67 64 63 65 63 57 50
32 46 58 37 26 24 26 34 41 75 60 77 81 60 44 45 39 39 42 44 46 47 51 55 59 59 59 59 56 55 55 60 58 56 56 71 72 70 59 53 65 51 56 64
44 45 73 55 44 33 27 28 44 61 69 55 80 66 38 44 44 43 43 45 48 49 55 60 61 53 59 60 57 55 54 51 50 52 62 69 76 78 76 72 60 60 61 61
47 39 50 68 38 30 29 29 29 57 86 72 72 49 39 58 55 53 52 53 56 60 62 61 54 61 59 54 51 48 42 38 41 44 57 54 56 74 74 69 81 80 74 59
47 61 51 45 36 31 30 32 31 32 40 61 51 48 53 59 54 56 57 60 62 63 61 61 56 53 51 46 40 37 34 35 33 36 42 45 61 75 84 95 86 94 74 54
52 81 54 51 47 47 46 44 41 36 34 35 36 44 51 49 49 54 61 66 62 62 60 57 53 50 40 39 38 36 35 35 35 35 36 42 60 75 80 99 96 77 68 59
67 74 84 82 70 80 73 51 40 35 35 33 47 45 54 60 59 68 69 64 61 60 52 45 44 37 38 35 35 34 36 36 34 36 42 61 65 63 70 71 94 77 82 65
70 84 96 90 81 66 55 36 34 42 41 41 52 60 61 57 67 67 66 62 56 54 44 38 35 34 32 31 32 35 35 34 34 39 45 52 63 63 68 87 98 88 67 56
62 89 95 97 92 60 49 40 46 50 53 61 69 66 63 59 58 68 64 56 51 43 38 35 33 30 30 31 32 33 34 35 40 46 53 57 69 75 92 90 98 69 60 57
77 80 87 97 88 81 60 44 39 42 80 65 67 71 69 63 89 77 61 55 45 38 36 34 30 30 31 31 34 35 38 41 46 51 58 63 72 83 79 73 75 56 58 56
94 91 94 91 89 83 61 41 41 74 71 68 71 71 73 78 78 75 60 45 41 37 36 33 32 33 35 36 35 39 42 46 52 57 62 64 69 78 75 76 65 58 56 59
86 96 94 85 85 91 42 44 58 63 67 69 69 74 77 77 77 67 49 45 39 38 34 34 35 37 38 36 41 44 51 57 61 65 70 78 77 79 78 76 65 62 62 64
73 80 90 81 82 49 41 41 45 50 65 73 73 73 70 75 73 54 48 42 38 37 38 39 41 41 41 42 46 53 60 65 69 70 74 82 75 75 71 70 69 70 70 73
49 51 79 71 58 47 47 54 56 66 72 74 76 74 65 71 54 47 44 38 39 39 40 40 41 43 46 52 58 64 70 71 67 68 70 76 78 73 78 79 75 76 81 79
57 51 55 69 53 50 64 66 76 78 76 76 81 69 70 50 47 40 38 39 39 39 40 42 44 48 50 61 63 68 77 78 82 83 78 73 60 67 73 81 86 89 86 81
53 60 78 81 56 62 80 78 78 76 76 74 77 58 51 48 39 38 39 39 40 41 44 43 43 44 57 72 69 70 93 95 94 94 77 68 64 72 90 100 98 90 88 83

GFSCGP_850_rhum_012.txt.gz
RH
19 25 23 17 17 16 16 22 23 18 14 14 22 30 30 30 40 47 56 60 60 62 62 51 50 52 71 78 70 66 69 69 67 63 61 63 56 52 52 52 52 51 49 52
25 23 16 18 24 26 26 26 27 22 19 15 25 29 30 32 37 46 55 60 56 54 56 60 64 72 78 83 74 68 69 71 67 66 66 59 48 48 47 52 53 52 51 49
28 18 17 25 28 30 34 31 27 24 22 20 26 29 34 34 37 41 49 55 56 56 55 56 59 64 68 71 61 57 52 50 50 48 47 46 45 45 47 51 49 49 45 48
21 26 26 28 28 28 38 28 26 26 29 28 21 43 32 40 42 43 51 52 55 54 54 52 52 52 52 50 48 46 46 45 44 44 43 44 50 54 56 53 51 53 55 60
28 30 31 30 26 24 31 25 26 26 33 34 30 44 36 38 44 48 49 52 47 44 43 45 44 46 48 49 46 45 46 50 53 53 49 50 52 55 56 57 59 63 64 62
26 23 24 24 25 23 22 29 40 38 44 59 41 47 48 46 42 44 46 49 44 42 41 43 47 48 49 50 52 54 57 57 58 56 56 59 60 61 63 64 65 66 64 72
31 30 25 25 31 30 33 49 69 68 74 67 42 54 52 41 39 46 49 44 44 43 42 42 45 45 50 53 54 57 59 58 61 62 62 64 66 66 67 67 72 82 85 73
45 48 30 25 27 29 33 43 72 62 70 61 42 58 49 41 41 39 40 40 40 42 44 48 52 56 56 55 56 56 58 61 62 65 67 67 68 71 71 69 76 71 71 68
46 39 27 22 23 29 34 43 36 62 67 76 57 44 35 36 38 34 35 36 42 46 52 54 55 56 56 54 55 57 59 60 62 68 72 65 49 56 60 57 60 56 66 68
32 39 26 22 28 28 27 28 54 66 58 53 50 53 57 45 44 43 53 47 49 52 53 54 54 56 57 57 57 56 52 53 55 54 52 53 51 57 58 64 65 64 60 66
39 41 37 36 35 36 40 41 44 49 66 72 78 61 47 51 49 59 55 52 51 54 58 60 61 61 57 53 51 48 56 54 51 49 46 45 52 54 63 72 71 70 70 65
38 51 59 37 28 26 28 37 47 69 54 82 81 59 42 50 49 51 50 49 52 58 62 63 57 52 51 52 49 49 47 46 42 42 48 58 67 70 68 76 83 81 89 68
40 49 72 60 50 39 36 32 52 62 68 49 72 59 46 49 50 48 54 60 64 64 62 59 49 36 39 50 51 48 42 37 36 35 35 38 36 37 53 73 83 85 84 87
48 53 52 68 48 38 30 30 50 55 80 69 69 46 61 64 65 60 62 63 64 63 61 52 36 42 51 48 43 39 38 37 35 34 34 33 28 38 79 76 73 80 80 73
52 60 49 42 44 35 34 35 37 41 52 61 51 57 63 66 67 61 65 63 61 60 52 38 42 49 42 39 38 37 35 35 34 34 31 29 29 43 50 52 57 90 74 73
64 72 51 49 57 62 44 46 49 45 37 40 41 68 58 57 60 67 65 63 62 56 41 40 40 46 39 34 34 34 33 33 33 31 31 35 37 48 50 57 83 93 76 69
67 76 72 70 77 71 68 50 44 37 39 38 48 60 63 68 71 68 66 63 58 49 41 40 39 35 32 32 31 31 32 33 35 38 40 41 46 50 53 70 85 95 100 91
75 90 93 77 68 54 48 43 39 46 52 66 68 68 63 67 68 67 64 60 52 48 40 37 34 32 30 30 31 32 35 37 40 41 43 47 50 56 57 85 81 86 85 80
64 86 98 72 86 50 43 45 46 44 56 67 72 70 64 68 67 65 64 58 50 42 38 35 33 31 31 32 35 35 35 41 42 44 49 54 61 62 65 75 81 82 74 64
79 78 78 99 63 54 45 47 41 42 78 69 68 72 67 65 89 77 64 65 44 40 37 35 32 33 34 35 37 38 40 42 48 53 58 65 72 75 78 76 76 75 69 66
96 94 89 99 90 78 55 46 42 71 61 70 68 70 71 78 62 68 64 46 42 39 36 34 36 37 39 41 42 43 46 49 54 62 70 70 76 81 79 80 84 80 76 70
84 93 98 96 92 79 48 50 59 57 62 65 71 71 72 70 76 65 60 45 41 38 37 38 39 40 40 42 45 49 56 62 68 72 73 70 77 78 76 74 74 71 72 75
62 68 81 76 77 47 44 39 37 43 52 69 69 72 70 63 69 67 48 43 39 38 39 39 40 40 40 46 47 61 68 72 67 78 79 80 76 80 80 82 84 82 80 83
58 58 85 75 57 57 43 48 45 54 56 68 73 73 70 64 72 49 42 40 39 39 39 39 36 34 31 35 47 62 63 62 66 92 90 90 75 68 67 77 85 86 90 89
57 62 63 76 60 64 58 56 53 65 70 75 76 78 73 66 48 42 39 39 39 40 40 34 26 30 37 42 46 52 52 81 94 98 98 98 75 71 66 80 98 98 97 92
57 60 79 72 47 50 54 61 72 75 77 76 79 62 51 49 42 39 38 38 37 41 31 26 31 38 42 45 44 51 71 93 95 96 98 98 93 77 78 89 100 99 100 86

GFSCGP_850_rhum_018.txt.gz
RH
21 26 24 20 17 15 19 20 21 20 21 44 57 64 66 74 66 70 69 65 62 60 65 67 68 69 65 76 78 92 82 90 97 82 71 65 72 71 60 53 51 54 51 55
25 25 22 27 27 27 26 29 27 26 30 48 55 59 65 66 74 79 86 86 79 82 87 91 96 95 98 98 95 80 90 86 71 68 68 68 52 49 49 48 48 49 49 52
28 24 24 27 32 32 35 29 28 30 35 40 42 50 59 58 71 76 87 88 87 83 83 92 79 75 70 61 57 60 66 62 55 50 48 47 47 46 50 52 54 55 57 58
33 29 27 29 31 32 31 30 28 30 38 45 36 65 53 60 73 73 76 78 74 70 66 64 55 55 55 51 48 47 47 49 49 50 51 51 53 54 57 59 60 62 66 68
31 29 30 32 29 28 31 33 32 33 39 38 38 62 56 66 74 75 72 71 66 60 49 45 44 42 43 44 46 49 51 53 55 56 57 60 62 65 65 66 69 67 61 48
32 27 28 28 29 28 28 39 47 54 51 61 47 51 59 68 66 69 69 67 61 55 50 50 46 47 48 50 52 55 59 58 58 60 63 64 66 69 65 48 45 46 48 48
35 33 29 28 31 30 42 47 69 67 73 72 50 54 50 49 55 62 65 63 59 55 54 53 54 56 55 55 57 60 61 59 62 63 61 63 56 44 36 40 52 57 55 61
45 38 28 27 30 34 37 45 72 56 78 66 49 60 54 46 43 51 54 58 59 59 58 61 62 60 59 60 63 60 57 48 44 43 34 28 34 43 59 70 74 74 54 67
44 38 29 25 27 32 38 48 44 71 70 79 67 50 48 58 58 54 55 58 62 64 66 65 63 60 59 59 55 45 40 41 37 30 33 37 36 40 60 65 46 34 34 63
40 42 32 27 30 33 32 41 50 68 54 48 61 60 69 60 64 61 64 60 64 66 66 63 61 59 56 50 42 45 56 42 38 36 38 37 36 36 34 28 24 25 50 74
38 39 37 31 38 40 42 43 55 59 68 68 78 69 54 55 57 60 62 58 62 65 63 62 59 56 52 46 61 69 45 41 38 38 38 36 34 31 27 25 29 31 35 35
43 54 58 36 35 39 35 38 44 64 51 84 79 59 43 55 51 52 63 61 62 61 62 60 58 54 48 62 49 39 43 40 38 38 36 34 30 27 30 38 43 45 41 35
42 52 70 51 42 36 36 48 55 58 69 67 76 56 51 62 62 59 66 67 67 65 64 61 54 45 44 39 40 43 42 38 37 35 32 32 30 30 32 42 48 49 43 44
42 57 48 54 40 44 38 47 50 48 71 62 66 41 59 65 68 66 68 71 69 64 60 56 46 44 44 45 46 45 38 36 35 31 34 34 31 37 45 51 55 57 48 62
48 54 50 55 57 44 35 38 56 51 48 54 48 52 44 63 68 63 64 69 67 64 61 52 42 44 45 48 43 38 35 33 32 35 36 38 41 46 52 56 63 58 58 72
62 66 44 55 65 64 49 42 46 55 50 60 57 57 47 50 58 64 67 71 67 64 58 45 41 42 51 42 38 34 32 32 35 38 40 42 47 53 57 64 66 65 76 74
63 72 54 48 72 56 53 49 51 48 49 47 54 42 73 77 73 71 70 68 63 62 55 43 41 40 36 35 33 32 33 36 40 40 42 45 53 58 64 70 72 75 85 83
72 72 76 69 67 50 36 43 45 48 46 51 56 58 70 65 69 65 62 62 63 62 54 45 40 37 35 32 32 33 37 40 41 44 43 53 61 68 70 69 72 74 79 81
64 80 93 71 72 44 26 39 55 54 49 62 63 69 70 71 69 70 66 63 61 60 52 43 40 36 32 33 35 39 40 37 39 35 46 62 71 63 66 70 74 72 78 79
73 70 69 91 55 44 36 41 44 40 68 52 59 72 76 72 90 72 60 61 61 56 48 41 38 34 34 38 40 38 32 32 34 52 59 57 56 72 79 80 76 76 82 81
97 98 76 98 74 63 43 46 42 58 53 59 54 56 70 79 61 52 54 59 61 60 47 39 36 36 40 40 34 28 27 35 44 47 40 40 52 88 92 90 76 80 80 79
92 97 97 94 86 61 41 52 57 52 36 38 47 49 54 49 58 59 58 64 67 50 41 37 39 40 40 30 24 25 30 35 38 36 36 44 64 90 94 90 72 78 83 84
71 66 76 69 69 44 43 50 40 40 34 37 40 36 48 56 66 66 70 63 47 45 39 40 41 38 29 22 24 28 32 37 39 41 47 58 79 88 93 94 78 81 90 89
69 58 76 63 45 55 42 36 40 43 42 41 46 43 46 59 68 72 73 59 82 43 41 41 35 27 21 25 29 34 37 39 44 53 69 81 97 96 99 96 78 72 92 95
68 66 66 76 62 50 40 39 36 37 39 44 46 52 61 70 74 73 69 86 48 41 38 32 23 23 27 31 33 36 40 45 52 68 86 98 100 98 99 95 86 88 98 100
65 64 78 72 34 40 35 32 36 42 46 48 56 64 77 74 71 81 90 45 40 35 28 22 24 28 31 33 37 41 48 54 68 80 95 100 100 99 98 96 96 96 95 95

GFSCGP_850_rhum_021.txt.gz
RH
21 21 21 21 16 15 17 18 20 24 31 48 62 64 64 70 69 73 78 71 68 65 59 60 63 65 64 70 74 88 90 74 79 86 74 68 69 72 51 50 52 52 51 52
23 27 26 30 26 26 24 26 31 34 37 45 54 64 65 67 73 78 80 84 79 86 88 76 73 73 76 82 96 99 87 78 72 68 68 69 50 48 49 50 51 52 54 57
27 26 26 30 30 30 33 30 30 34 38 40 43 49 63 66 76 84 91 96 98 99 98 94 88 79 75 84 90 88 74 66 68 69 50 49 51 52 53 55 58 61 63 66
32 29 27 29 32 30 36 30 35 39 34 35 35 28 57 69 74 79 88 96 100 95 82 72 62 57 53 52 54 55 52 55 54 53 55 56 57 59 62 66 66 67 67 58
33 30 30 34 31 29 36 31 31 30 33 34 36 36 51 66 74 75 76 87 93 92 69 60 55 53 52 50 48 49 51 54 56 58 59 59 62 66 67 66 56 46 40 37
33 29 30 29 34 32 39 38 42 44 41 40 43 36 43 69 62 65 68 76 78 70 58 54 53 51 50 51 52 55 58 59 59 60 60 59 63 57 44 36 38 42 39 40
33 32 29 29 33 32 36 39 49 53 55 48 48 48 35 42 51 56 60 66 65 59 53 52 52 52 51 54 56 60 62 60 58 50 42 29 22 22 22 24 32 41 52 43
36 37 27 28 31 33 39 39 58 52 61 53 45 50 37 43 44 56 58 61 57 56 55 54 54 53 54 56 62 64 60 48 38 32 26 28 30 35 41 47 49 33 26 27
42 36 30 30 30 32 39 39 43 60 68 61 46 44 40 52 47 58 62 64 64 57 56 58 58 60 63 65 63 53 45 44 36 39 31 37 37 35 34 31 27 22 23 25
40 44 33 30 32 35 34 39 44 48 51 46 42 51 41 56 52 55 60 63 66 60 61 64 64 66 65 58 46 61 68 65 56 35 37 37 35 33 30 26 22 29 29 27
36 41 39 34 38 39 40 43 52 47 52 44 48 33 44 45 48 54 55 60 62 63 65 66 66 63 56 47 58 67 49 46 34 39 38 35 33 31 28 24 30 38 42 39
43 51 52 36 36 39 36 39 43 49 47 63 57 36 36 47 48 52 55 60 59 62 65 66 64 59 52 53 61 44 46 39 42 39 35 32 32 31 26 35 47 51 52 46
45 52 57 45 36 36 38 44 46 52 59 59 73 34 38 57 54 53 53 57 57 62 68 67 62 57 51 53 46 48 46 44 40 35 33 33 34 32 38 48 53 53 52 50
41 52 46 44 36 43 44 51 44 43 55 50 53 37 34 50 55 59 60 54 62 68 69 65 61 53 46 45 46 55 43 41 36 33 33 37 38 41 45 52 55 56 57 57
47 48 50 54 54 46 36 44 49 41 43 47 39 42 33 37 48 55 69 75 71 68 66 63 57 48 44 44 62 44 44 37 34 32 38 39 41 43 50 55 57 58 63 67
59 59 50 57 60 58 50 42 44 50 49 43 46 45 36 39 55 63 63 71 72 68 64 60 53 44 41 60 47 46 38 34 32 38 40 41 43 44 54 56 59 61 66 71
60 65 56 54 62 49 52 45 43 45 47 43 49 36 55 56 61 59 67 68 70 66 63 61 49 43 50 57 41 37 34 32 37 40 36 40 34 47 55 60 54 63 68 70
65 60 64 62 64 46 32 44 41 43 41 41 41 42 51 55 54 55 56 60 66 64 63 58 46 44 59 38 34 33 33 37 39 33 30 28 40 53 55 55 65 72 69 70
58 67 77 69 56 40 23 35 49 53 35 42 40 48 67 70 67 62 58 59 59 62 62 56 46 42 38 34 33 34 39 38 28 24 26 38 49 48 47 73 81 81 70 76
63 63 65 75 52 48 33 30 45 42 57 40 49 64 73 70 71 52 48 58 63 64 63 55 44 40 36 34 35 40 34 23 20 25 34 40 42 40 48 82 91 83 71 79
97 94 75 78 69 55 40 40 43 48 46 38 50 49 71 67 48 38 44 58 64 64 58 49 41 36 35 38 40 31 20 19 26 35 37 39 38 41 57 82 89 82 70 77
71 88 88 84 74 62 40 51 54 46 36 30 42 41 44 34 38 50 54 60 67 62 59 47 46 38 39 40 29 19 21 27 33 36 38 38 39 48 70 90 87 88 75 79
66 64 67 60 61 41 37 44 35 41 39 34 38 38 42 45 45 56 57 63 67 63 47 62 51 41 38 26 20 23 28 32 33 35 36 38 53 61 91 97 94 94 80 87
67 62 67 62 46 52 40 35 32 32 36 35 41 44 49 52 61 68 68 70 55 62 80 68 42 35 24 21 24 28 32 36 37 38 41 57 77 90 99 92 97 94 77 81
63 66 66 70 58 46 33 31 32 36 38 39 43 48 52 60 70 72 74 52 75 98 73 42 34 24 21 23 26 30 35 37 40 42 55 74 80 97 97 97 98 94 89 91
67 63 72 65 33 40 36 37 44 48 47 48 54 57 63 75 79 81 60 86 96 55 41 31 26 21 24 27 32 36 38 39 46 54 77 80 86 88 90 93 95 94 90 93

GFSCGP_850_rhum_024.txt.gz
RH
21 18 18 13 12 11 10 12 11 16 26 26 27 27 31 43 44 45 45 50 55 59 82 55 54 59 91 96 99 97 96 91 79 74 72 78 68 70 72 64 56 56 57 56
18 19 21 20 15 13 13 13 18 23 27 25 27 33 35 38 45 47 48 50 55 75 86 85 96 96 85 88 98 96 96 92 89 71 73 78 83 78 58 51 56 59 60 61
19 23 22 20 18 17 20 18 23 19 27 26 26 32 37 44 49 56 60 57 66 77 84 90 94 100 98 96 99 100 98 95 75 78 83 72 61 54 63 69 69 66 66 66
23 22 21 19 21 19 21 22 21 26 22 20 24 19 36 43 48 50 60 65 85 86 83 84 87 93 99 100 100 86 79 74 71 70 66 71 64 69 70 71 74 73 60 52
26 23 22 22 26 24 26 25 22 22 21 23 24 21 33 45 49 53 61 68 74 70 65 66 70 80 88 99 86 76 68 65 58 56 62 66 66 67 67 66 57 65 64 70
24 24 22 24 26 24 25 26 25 24 24 29 21 25 16 36 34 48 59 65 68 61 56 56 62 66 71 76 73 58 66 60 60 63 63 59 48 48 46 52 52 49 54 59
24 24 22 25 26 28 26 25 29 38 36 31 32 29 16 22 33 41 51 57 61 58 54 57 59 57 63 69 74 70 69 68 68 64 48 36 44 47 50 52 53 58 47 47
23 30 22 24 25 22 25 24 27 28 30 26 34 29 23 27 31 40 46 48 52 53 54 54 54 58 66 71 72 70 70 65 56 38 43 45 34 52 52 52 46 45 49 49
25 26 24 26 25 25 29 28 30 40 54 47 24 26 26 32 31 40 43 45 47 50 54 54 58 63 68 70 74 70 58 52 49 63 36 29 31 40 41 44 52 46 49 51
27 32 27 28 26 28 27 27 34 34 46 34 21 25 19 38 35 38 41 43 44 46 51 56 62 68 68 70 71 61 64 59 44 46 35 34 34 34 36 49 48 50 54 56
24 26 33 30 28 27 31 30 31 28 35 27 24 13 24 27 30 36 40 42 42 45 51 59 63 70 70 68 62 68 53 52 41 44 39 36 42 40 47 50 50 56 63 64
29 31 40 31 30 30 28 26 24 27 31 42 41 20 23 32 31 32 37 41 43 48 54 60 66 68 65 63 66 57 47 53 66 53 42 44 33 46 49 49 56 64 70 70
32 35 41 37 32 30 30 29 26 33 37 36 58 18 24 32 34 34 36 39 46 53 58 62 67 64 61 61 59 47 66 69 54 44 42 41 45 49 48 54 64 71 74 70
33 35 32 36 26 26 34 34 27 24 36 25 29 14 18 23 27 28 36 39 48 57 59 63 64 62 59 61 47 58 72 50 42 43 39 39 49 51 53 60 68 74 76 74
36 36 35 32 33 32 28 29 30 27 24 32 16 20 12 15 18 22 32 41 47 55 59 62 62 60 61 58 48 63 57 47 43 42 40 46 52 50 57 67 76 76 78 80
42 42 42 44 41 37 36 28 26 27 25 27 23 22 16 19 24 30 40 45 50 54 57 60 62 60 57 51 52 62 61 45 41 37 45 48 34 48 60 72 75 71 78 78
45 48 44 41 43 41 61 37 27 25 27 28 30 21 18 26 28 28 35 45 48 52 56 59 60 57 54 53 61 66 50 41 35 41 42 41 46 51 63 66 67 70 76 84
51 45 55 58 62 77 20 25 24 25 23 20 23 18 23 23 34 42 42 40 49 53 57 59 58 56 53 56 56 47 40 35 35 39 39 47 53 60 64 67 69 76 80 81
39 46 71 84 40 26 14 22 28 32 21 20 21 20 22 44 48 39 43 48 50 56 60 60 59 56 55 53 51 36 36 42 39 39 43 50 56 66 64 64 72 80 82 81
44 44 48 66 86 86 25 30 38 34 32 24 30 32 38 47 47 20 30 33 55 64 63 61 57 54 47 56 37 42 43 40 39 27 26 31 62 68 66 69 79 85 85 84
81 82 84 66 83 44 25 26 40 38 29 32 39 39 46 44 30 40 33 41 61 64 64 61 57 48 46 36 61 42 41 30 25 21 27 44 66 71 73 79 87 87 86 89
58 75 90 73 93 78 31 40 44 34 37 40 38 42 48 44 54 58 59 58 62 64 59 57 51 42 40 81 51 40 33 22 21 26 32 63 69 76 82 88 90 90 93 97
52 45 46 44 39 33 36 33 39 46 43 42 47 41 52 53 55 59 64 68 63 55 50 51 54 68 92 44 34 29 26 21 27 32 42 77 86 89 86 90 94 99 97 97
46 47 51 48 28 32 35 38 38 39 41 42 42 46 51 56 53 63 68 61 55 53 59 60 73 91 61 51 21 22 23 27 32 37 70 82 90 88 91 92 100 100 100 100
45 49 47 50 39 35 35 38 42 45 50 53 53 57 63 65 64 68 65 59 57 62 78 98 92 79 38 22 23 24 27 33 38 56 78 83 95 94 90 92 100 100 100 99
48 42 56 49 44 43 39 46 54 59 60 67 72 71 77 79 78 72 64 75 79 99 96 89 53 40 23 23 26 31 35 36 39 49 71 96 97 96 100 100 100 97 91 90

GFSCGP_850_rhum_027.txt.gz
RH
20 18 20 14 14 12 10 12 8 11 14 10 9 13 16 21 21 24 27 33 38 43 52 67 61 62 65 79 97 100 99 84 85 85 96 97 87 86 84 80 76 63 69 62
18 24 16 15 12 13 10 11 12 12 12 16 12 13 18 23 23 24 26 30 35 42 62 65 72 74 76 89 98 100 100 98 96 93 93 83 81 76 70 74 65 71 64 68
37 22 18 15 12 12 12 12 14 14 15 14 15 18 25 24 28 32 30 30 34 41 57 67 72 89 99 99 98 98 96 96 89 75 74 74 75 75 69 70 70 75 69 71
31 19 18 14 14 14 16 16 15 17 19 19 15 17 20 27 29 33 38 38 40 49 56 64 71 98 98 96 92 91 93 81 72 70 64 67 58 59 67 70 71 69 75 70
30 19 18 16 18 18 27 16 17 17 17 22 19 16 45 26 28 29 32 38 48 52 56 62 65 77 97 92 92 81 72 69 74 67 67 69 65 70 66 63 62 54 57 56
29 19 18 19 20 19 19 20 20 19 16 24 14 16 17 25 22 27 34 44 50 53 52 54 60 66 75 85 73 72 67 67 70 71 72 71 66 52 47 52 51 45 48 49
19 18 19 19 21 20 17 20 28 31 27 28 18 20 14 10 19 22 37 45 50 47 44 48 55 58 67 72 73 68 63 66 70 69 62 57 43 50 66 56 46 47 40 41
21 29 20 18 19 18 20 18 28 30 26 20 21 19 14 17 19 24 37 44 49 45 43 45 47 50 57 65 66 61 63 66 66 58 53 58 53 56 48 47 46 47 46 45
20 23 19 20 19 17 20 24 20 27 45 36 16 10 19 22 22 26 35 41 45 44 43 44 45 48 55 62 65 63 63 59 54 59 67 38 36 35 42 47 52 44 47 46
18 25 19 22 21 21 23 18 26 23 35 32 15 14 14 25 23 26 32 36 41 41 42 42 44 52 58 62 66 67 61 53 64 57 48 38 35 51 46 51 51 48 51 56
17 19 27 24 24 18 26 24 22 22 28 33 23 15 13 15 20 25 28 33 37 39 40 43 46 53 59 62 68 64 59 61 64 57 56 54 56 47 49 51 49 50 56 61
20 20 28 26 22 21 21 21 22 31 26 29 39 24 15 16 16 22 25 30 34 37 38 42 48 54 59 63 64 65 65 60 60 68 61 59 48 44 47 48 46 52 60 65
25 23 31 30 27 23 22 19 20 20 28 29 47 22 15 17 18 18 20 26 32 35 36 40 48 54 59 62 59 66 63 61 70 70 65 46 43 45 46 49 48 55 60 64
30 23 26 33 24 20 28 21 20 22 32 26 20 15 14 16 17 15 19 21 27 33 37 41 47 54 57 58 58 65 60 68 70 63 51 38 39 46 52 50 50 56 64 67
31 33 26 23 24 22 21 19 21 22 20 25 20 13 8 9 10 12 15 21 23 31 38 43 48 53 55 55 58 58 60 70 74 60 45 38 42 52 53 50 56 63 69 67
30 32 34 39 28 28 27 22 18 17 17 15 14 15 11 14 12 15 17 22 24 27 36 44 49 52 54 54 57 54 62 65 67 53 45 43 48 54 50 51 63 67 61 62
37 36 40 34 32 31 55 35 24 18 16 18 24 17 12 15 18 19 19 24 28 30 35 41 46 51 52 54 58 54 61 71 58 46 43 47 52 53 51 53 54 55 58 66
43 41 47 48 64 77 16 16 16 19 16 14 14 13 12 13 21 25 25 26 26 32 34 39 45 51 53 54 55 59 66 53 50 44 45 49 47 46 52 54 55 55 61 66
31 39 58 81 36 23 17 13 20 21 18 15 17 16 15 21 31 26 28 29 28 28 34 41 46 51 52 52 59 62 53 43 45 49 47 43 44 55 57 54 54 58 64 68
34 36 42 52 82 86 30 23 25 23 28 19 19 19 21 24 29 21 31 33 34 38 41 46 50 54 54 54 53 49 46 50 51 47 46 46 51 55 56 58 61 67 71 70
72 75 76 60 75 46 21 22 29 35 37 28 27 25 27 28 23 39 39 34 40 40 46 51 54 52 53 50 51 49 56 64 50 51 21 20 50 55 61 66 71 74 74 79
55 69 87 66 92 77 22 28 36 35 26 26 31 31 34 38 38 39 46 44 44 49 52 56 54 50 46 51 70 85 70 57 47 21 26 56 58 66 69 74 79 80 79 86
45 39 43 40 39 28 25 24 26 31 35 34 34 35 36 38 38 40 42 49 51 53 53 50 46 58 76 86 93 93 58 38 33 33 62 68 70 73 76 78 80 81 88 94
34 35 41 40 22 22 24 27 31 33 35 37 39 42 43 45 46 48 49 58 56 48 44 53 77 95 98 98 83 57 33 49 34 76 75 76 76 78 84 83 74 82 91 94
37 36 34 38 29 26 28 32 40 46 50 50 51 55 56 63 58 57 59 56 50 61 78 98 99 99 93 79 61 53 44 29 47 67 72 78 78 85 87 81 81 85 92 93
37 34 52 50 42 51 44 51 64 61 65 67 66 65 68 67 68 63 58 63 85 100 100 98 96 93 74 75 52 30 33 36 37 43 47 66 85 88 92 92 94 92 95 92

GFSCGP_850_rhum_030.txt.gz
RH
21 22 23 38 20 16 15 14 14 11 9 11 15 13 12 14 17 26 29 34 37 38 43 47 42 40 44 71 85 88 96 87 78 76 77 75 67 74 74 76 76 68 59 57
23 26 20 26 16 17 15 16 14 10 11 12 10 11 12 14 16 21 26 30 36 39 49 60 54 54 66 82 86 88 97 99 82 92 90 83 87 75 79 75 60 66 67 75
37 28 23 21 16 16 14 14 19 14 10 8 12 11 16 16 17 17 21 25 30 37 56 59 62 66 71 85 86 86 95 91 90 91 82 83 78 74 70 60 68 70 71 71
35 22 21 17 16 13 22 18 16 16 16 19 18 24 42 31 21 20 21 23 27 32 51 56 63 75 91 93 85 89 90 86 85 79 73 74 74 65 66 70 74 69 63 52
34 28 24 21 20 18 25 23 20 13 15 40 32 37 30 37 34 26 27 30 29 32 44 53 67 76 78 89 86 97 87 76 76 66 67 65 69 66 70 67 66 46 49 54
24 20 26 43 25 17 18 22 18 16 18 57 30 47 30 32 30 33 25 31 34 44 48 51 66 75 90 81 85 83 76 69 73 67 66 67 67 63 59 52 52 52 47 49
21 20 16 23 18 15 14 18 36 68 66 49 17 21 22 26 34 68 49 31 41 45 49 54 65 82 81 79 80 74 66 68 69 72 73 70 67 55 45 59 51 48 48 42
27 27 17 16 16 37 20 16 45 72 82 39 18 21 18 16 17 24 31 39 44 48 49 53 58 64 76 75 73 70 64 66 71 72 65 59 49 51 54 55 49 44 44 45
38 42 24 17 15 16 19 23 17 24 47 56 22 12 16 17 18 22 34 38 44 44 44 48 51 57 66 70 71 63 62 65 69 61 56 54 57 48 42 47 61 42 47 43
64 82 38 19 17 17 19 16 29 24 39 38 19 16 28 24 20 21 32 38 42 43 41 42 44 48 56 63 66 61 61 63 62 56 63 58 47 46 58 43 52 53 50 52
22 49 26 22 21 16 23 25 19 16 29 49 51 23 14 16 17 21 26 34 39 42 41 41 42 45 52 58 63 64 63 60 55 64 62 53 58 56 55 56 53 52 50 55
16 20 32 23 17 17 18 22 20 54 34 38 53 37 15 15 15 18 21 26 34 38 40 40 41 43 52 58 62 68 67 55 59 63 63 62 58 63 49 48 50 48 49 56
22 26 38 26 22 21 22 17 17 21 34 40 72 35 14 14 13 14 17 21 28 33 37 38 41 44 51 56 60 66 64 59 62 62 61 64 61 50 47 48 49 50 51 57
30 24 23 39 24 22 28 22 16 20 59 40 36 19 14 15 16 14 16 17 20 28 32 34 38 44 49 55 59 64 63 66 61 62 67 56 57 56 44 49 53 50 52 57
28 30 23 19 19 22 24 20 18 19 22 35 29 18 14 12 15 13 13 16 19 20 27 31 34 42 49 54 59 61 63 65 62 65 65 55 57 42 59 54 52 52 58 65
29 38 34 38 27 25 28 23 21 18 16 17 16 16 11 12 16 16 16 15 17 20 21 27 33 39 48 53 56 58 62 60 68 68 62 51 65 51 51 54 50 51 61 64
36 47 51 52 34 33 52 33 24 19 16 17 24 20 15 14 13 18 19 19 20 24 25 26 32 38 43 48 55 55 60 56 65 66 59 66 52 52 55 51 53 53 54 56
40 47 66 72 65 64 21 15 15 18 15 13 12 15 14 22 21 19 19 21 24 24 27 29 30 35 41 48 53 55 57 56 62 67 57 60 50 52 49 50 44 51 54 56
31 51 75 95 55 30 22 15 18 20 20 17 18 17 16 19 22 20 24 28 28 29 29 28 32 38 43 50 53 56 55 62 61 65 61 65 64 49 52 49 55 57 63 64
30 40 70 69 82 78 32 21 20 19 35 21 22 24 23 21 46 33 36 33 31 32 33 36 38 43 49 52 53 58 63 53 60 66 74 64 78 45 39 53 62 74 72 75
75 83 87 74 88 61 23 22 24 42 51 27 28 28 28 34 33 36 37 40 40 37 40 44 48 50 53 53 54 51 48 58 84 87 80 61 69 42 64 78 81 82 83 78
72 84 94 79 96 89 21 25 36 40 30 30 30 31 34 35 36 37 37 37 44 45 49 53 52 51 50 51 56 74 79 98 96 82 83 64 43 52 85 86 81 81 73 79
50 45 62 58 62 32 21 24 24 28 31 33 34 36 38 41 43 42 43 46 51 50 49 47 50 57 70 70 82 86 92 92 84 74 42 35 48 79 84 81 79 76 80 83
31 32 48 44 23 23 23 25 27 36 42 45 46 47 51 53 58 55 53 55 51 45 48 61 75 71 76 88 89 86 81 86 71 46 36 66 83 83 77 62 78 84 79 82
39 35 35 36 30 31 32 48 54 57 58 61 62 62 64 63 62 60 53 56 60 76 76 76 82 93 93 87 92 93 83 59 43 50 48 51 53 48 56 83 84 85 85 91
35 36 64 64 50 52 54 62 61 64 64 67 65 67 71 66 67 66 72 84 72 74 83 85 88 89 94 92 80 74 71 52 45 40 40 44 47 57 70 91 93 86 84 86

GFSCGP_850_rhum_033.txt.gz
RH
34 36 38 33 32 25 27 21 22 18 12 25 25 23 21 20 32 37 34 37 37 36 36 39 44 53 58 64 69 63 63 73 72 61 55 61 75 70 76 75 68 60 60 61
42 51 29 24 27 29 26 23 24 18 13 16 19 21 20 19 27 32 34 40 40 38 40 39 40 50 61 70 76 76 72 80 85 66 68 80 78 72 74 70 68 60 56 52
43 40 28 24 28 30 29 35 25 17 12 11 12 18 25 19 17 30 33 35 39 39 47 44 50 52 69 77 80 78 80 73 83 80 84 91 80 84 79 74 57 58 60 61
37 32 31 28 29 25 25 28 28 21 21 25 24 40 40 36 28 23 29 35 40 41 49 51 55 71 76 86 86 88 87 82 84 86 97 85 82 77 71 62 67 70 68 51
38 36 37 39 29 23 30 25 24 27 29 35 33 41 37 38 26 31 30 26 37 42 50 58 61 67 86 85 92 91 86 84 81 81 83 81 76 74 67 71 75 69 51 55
28 27 32 35 29 29 26 22 27 35 41 49 33 38 46 51 34 32 26 28 31 50 57 60 64 68 72 84 84 83 85 80 80 83 79 76 74 73 70 74 68 54 53 52
30 30 27 33 33 29 25 30 55 64 77 67 35 42 38 33 32 38 35 27 36 47 58 58 62 73 77 77 80 89 91 83 81 70 69 70 70 69 70 67 53 56 51 49
37 45 37 26 32 30 27 31 63 75 85 70 43 49 32 26 25 30 31 27 41 45 50 53 62 70 67 74 77 83 83 80 73 71 67 70 68 63 59 50 53 55 55 48
44 45 37 31 33 25 31 35 34 67 72 82 46 22 25 25 34 50 42 38 45 46 52 61 67 70 71 71 81 83 79 69 70 69 70 72 72 66 52 51 52 64 61 39
56 52 45 38 32 20 22 21 38 50 45 46 34 30 39 31 44 48 49 49 47 50 53 57 67 71 75 76 77 74 68 66 67 69 71 69 61 54 51 46 47 50 37 41
51 56 60 46 38 29 29 29 27 32 52 60 71 42 18 26 29 44 48 45 46 46 48 50 52 54 65 70 68 67 65 64 65 68 65 58 58 50 40 50 53 52 62 55
48 59 77 51 28 20 21 28 42 65 39 55 74 52 17 18 26 23 34 41 44 45 43 43 44 47 52 56 60 63 62 63 65 65 60 60 62 51 58 57 56 68 57 50
34 39 50 38 32 30 26 24 22 34 56 48 67 50 20 15 14 20 22 24 40 43 43 42 42 44 47 52 57 61 64 64 64 60 59 62 59 63 60 60 70 58 51 50
32 34 42 52 38 30 33 26 26 30 69 49 51 37 26 22 20 18 16 18 30 39 41 41 41 42 44 47 54 60 63 66 67 57 61 62 63 62 66 81 59 59 64 52
38 40 27 31 32 27 28 31 30 26 37 47 40 34 28 19 21 20 19 19 18 20 32 39 40 42 44 50 55 60 65 67 67 61 62 62 61 68 84 67 65 69 61 52
37 49 36 41 38 35 34 31 32 30 26 23 27 30 20 18 19 19 19 19 20 21 23 25 34 43 44 48 55 60 64 66 64 63 62 63 62 90 74 68 84 66 42 42
48 55 66 56 46 40 50 33 30 31 27 25 28 27 30 29 26 22 21 22 25 26 27 27 28 34 48 51 54 61 64 66 68 65 66 63 69 88 70 82 81 59 45 46
60 58 77 76 65 48 37 18 18 20 24 25 25 26 28 25 30 28 27 28 28 28 28 28 29 31 33 41 58 62 64 66 66 69 65 71 72 78 72 83 60 49 46 47
56 71 84 73 79 49 33 26 25 27 32 29 34 32 28 24 28 39 34 32 33 32 33 34 35 40 42 48 58 64 64 63 66 67 65 69 73 79 89 77 58 51 54 72
51 65 69 86 80 66 51 24 22 22 52 34 33 39 36 31 60 59 39 37 36 39 39 40 41 46 52 58 60 59 63 68 62 66 73 90 97 91 76 79 56 56 77 62
86 80 80 94 90 75 43 26 24 44 56 34 32 35 35 46 44 38 38 39 44 46 46 47 48 50 56 58 58 60 57 59 75 85 95 94 91 79 54 49 66 86 77 75
77 93 95 96 98 81 30 28 37 54 34 33 34 39 41 41 43 46 47 48 49 49 52 53 53 54 56 56 56 58 59 80 90 93 93 82 68 61 51 51 66 80 80 82
74 79 84 76 82 52 25 27 29 30 42 47 50 52 49 56 58 58 54 52 50 51 52 53 55 58 60 62 64 68 70 87 95 89 73 64 56 47 42 63 78 81 83 77
42 40 60 51 37 36 34 49 49 46 53 60 61 60 60 62 61 58 54 50 51 53 54 57 56 57 59 68 80 85 87 91 82 66 55 47 35 46 64 72 72 62 75 86
56 44 47 49 46 63 63 64 60 61 61 62 62 63 62 62 60 58 58 58 62 63 63 64 72 82 85 86 89 85 72 57 52 43 34 34 38 41 43 48 59 72 85 91
46 52 68 80 64 67 68 66 64 62 66 69 65 66 68 65 68 68 69 71 73 77 84 87 90 90 86 72 62 60 53 42 36 37 39 40 45 50 57 62 64 78 81 72

GFSCGP_850_rhum_036.txt.gz
RH
34 41 40 38 33 34 30 32 36 23 18 31 31 25 29 44 55 60 51 44 50 59 63 66 68 71 76 79 65 45 50 60 69 69 69 72 60 53 64 73 74 74 70 62
41 41 34 32 25 28 33 36 34 25 19 28 31 26 26 38 44 48 44 41 47 59 64 66 73 77 72 70 59 47 40 53 69 72 64 58 53 59 71 72 75 71 58 47
43 34 31 31 26 30 33 35 31 32 20 14 21 29 28 22 35 40 40 35 37 42 53 56 63 64 67 69 64 63 60 63 74 78 68 57 61 78 76 74 74 69 57 53
36 32 32 33 32 29 37 27 26 30 24 22 25 41 38 30 29 41 41 44 40 38 40 44 51 58 61 64 68 70 70 77 82 80 70 64 71 74 76 73 72 58 60 65
30 36 33 33 33 29 35 26 30 27 32 35 32 36 32 37 29 36 33 43 47 41 39 41 42 46 54 59 64 71 80 83 82 86 84 75 84 80 72 75 68 68 68 63
26 29 31 33 31 30 32 30 35 47 45 46 40 39 40 43 29 26 25 32 42 47 55 49 50 60 66 70 71 83 92 91 93 89 87 84 78 74 74 75 72 74 64 56
32 33 29 32 32 30 30 39 58 56 71 56 43 42 39 30 32 33 28 35 34 43 56 59 60 66 73 76 74 96 91 88 91 84 84 79 80 77 72 74 75 71 60 57
42 43 31 32 33 37 38 35 60 51 69 56 47 52 41 28 24 28 29 30 39 47 54 58 58 63 68 73 83 88 86 89 85 83 85 86 89 83 77 74 74 60 56 57
48 46 40 36 37 35 33 37 36 70 74 82 53 31 28 32 37 43 45 38 55 59 60 60 65 65 72 84 85 86 91 93 85 85 83 79 82 74 70 66 60 59 50 54
44 48 42 39 30 30 32 26 38 54 55 59 39 35 42 34 35 50 47 43 47 53 54 56 61 68 74 71 73 81 84 92 87 83 73 71 70 65 62 56 57 55 58 57
49 40 46 42 44 38 30 30 30 39 56 56 68 42 24 35 43 50 49 36 44 51 51 54 58 64 64 65 65 66 77 80 82 75 73 72 74 71 64 54 53 49 50 59
48 58 66 44 35 31 27 34 40 63 36 60 75 48 28 29 36 43 44 40 43 47 48 47 49 53 57 60 63 68 71 75 71 68 67 68 70 68 61 51 46 64 69 74
47 54 59 45 33 34 33 27 32 48 59 50 68 52 25 22 20 29 43 44 48 49 49 54 57 56 54 53 50 60 67 65 68 66 66 67 66 62 60 52 62 72 81 59
32 43 48 57 36 34 35 33 32 39 70 53 57 39 29 26 25 19 23 28 42 46 48 48 52 53 52 50 49 63 65 62 63 63 65 65 64 62 60 60 68 84 58 70
38 40 34 33 33 34 32 32 34 32 37 45 37 41 29 23 23 22 19 21 28 46 53 51 49 48 48 52 56 61 62 64 66 67 68 65 66 62 62 74 88 69 82 72
42 42 37 38 41 34 32 31 31 32 30 38 33 34 32 25 25 25 24 23 28 29 29 30 33 44 47 49 50 56 61 67 69 70 67 69 65 66 76 81 87 94 76 94
49 59 66 56 48 39 56 39 33 30 31 29 33 31 29 32 28 26 29 29 30 30 30 31 32 35 43 46 48 53 58 68 73 71 68 69 63 67 79 97 89 97 96 89
62 66 75 75 60 61 43 29 29 36 34 31 34 33 39 40 38 33 32 32 33 33 30 29 30 32 36 44 54 61 69 77 75 73 72 68 66 80 85 94 95 95 91 83
58 75 83 71 73 53 37 25 27 34 36 32 38 35 33 42 40 42 38 37 36 36 36 36 34 33 34 38 53 68 76 80 74 73 68 69 72 77 98 95 90 92 64 55
65 74 76 92 68 64 47 29 24 32 57 37 40 41 39 36 68 60 44 42 40 40 40 39 41 44 46 49 56 72 77 76 74 70 68 70 83 94 98 99 71 57 59 60
83 85 78 96 78 65 47 32 26 36 43 38 36 38 38 53 48 51 45 46 46 46 47 49 48 47 52 59 68 72 74 71 71 77 76 88 98 99 79 59 54 56 55 61
65 86 90 95 90 63 41 30 38 44 42 40 41 43 48 56 54 51 51 51 52 52 54 56 56 59 63 64 64 66 74 79 83 87 97 98 80 63 62 56 45 38 50 66
62 64 75 73 73 49 34 36 35 35 44 53 48 52 49 53 55 55 55 55 57 60 60 63 62 62 63 65 67 67 74 90 99 99 95 71 61 53 45 38 40 42 49 61
49 59 69 62 65 71 61 49 48 46 49 58 57 57 56 57 59 58 60 62 62 63 62 64 65 70 76 82 86 88 89 84 68 57 50 46 37 32 33 36 39 44 45 52
59 52 57 77 75 70 68 69 64 63 63 61 62 61 61 62 65 65 68 71 72 72 75 78 80 82 86 83 70 61 53 46 36 31 32 33 34 36 38 40 44 49 50 59
51 57 68 73 60 66 76 73 66 63 65 65 60 65 67 65 67 69 74 78 80 86 90 87 80 70 63 57 52 50 48 44 39 38 42 42 42 46 51 55 59 61 65 67

GFSCGP_850_rhum_039.txt.gz
RH
37 40 42 37 36 31 30 34 38 30 20 31 33 28 48 55 64 74 75 76 71 65 61 62 50 49 49 65 70 74 77 72 70 73 75 83 94 95 80 59 68 70 72 80
39 41 37 32 34 31 31 31 34 27 23 32 34 33 28 56 60 62 66 67 68 66 65 66 55 55 57 63 67 75 70 72 68 69 76 88 90 80 64 70 73 74 75 76
42 32 32 30 29 30 31 32 34 32 29 19 29 31 26 31 49 59 60 60 57 61 61 64 60 58 61 64 62 61 45 56 63 64 81 85 82 70 68 73 74 74 71 63
39 32 33 34 32 30 33 30 32 34 31 24 24 36 38 34 44 49 51 54 48 56 60 59 60 62 65 63 65 63 54 50 52 68 80 78 74 63 58 69 75 76 70 62
31 39 39 35 31 30 34 30 34 30 32 35 34 36 33 38 38 42 46 49 46 48 58 59 57 51 57 70 70 64 60 59 56 67 80 83 78 68 70 79 79 77 72 68
29 31 31 29 29 31 29 28 39 46 47 48 42 38 40 38 34 32 34 44 44 45 54 58 58 65 67 68 73 70 66 70 73 81 88 88 83 72 74 82 77 78 70 72
33 32 30 33 31 33 33 41 56 55 66 53 43 45 41 28 29 31 35 39 45 44 46 56 58 60 61 59 65 69 68 76 85 90 92 93 93 85 78 76 74 77 73 74
45 42 34 31 33 36 37 39 58 50 64 52 49 58 41 30 32 28 26 24 31 44 47 48 50 49 52 56 59 63 71 83 89 93 94 98 100 93 78 79 79 78 76 74
48 42 38 35 37 31 34 40 37 68 74 79 54 43 28 31 44 52 42 36 42 44 47 48 55 59 58 60 62 69 80 87 86 96 99 91 92 92 80 90 86 81 80 70
40 34 38 40 35 34 31 32 41 55 50 59 48 40 41 33 31 52 56 50 43 49 52 54 56 58 62 64 66 82 87 83 88 90 87 85 82 82 79 93 85 85 64 65
46 34 37 39 41 36 34 35 35 43 56 55 66 50 30 33 32 40 41 40 46 51 52 51 54 57 56 61 70 74 74 74 79 81 79 78 77 79 79 81 76 72 67 74
44 48 51 43 37 32 29 33 39 62 41 64 77 53 28 27 34 40 35 36 33 40 34 37 44 51 54 62 70 68 63 60 62 70 71 83 78 76 75 74 69 63 65 59
49 53 56 44 36 34 36 36 43 51 58 61 69 52 27 25 21 24 37 32 37 39 44 47 50 49 48 57 68 66 66 69 68 62 63 81 79 78 73 65 56 54 54 59
35 52 45 51 40 37 37 35 36 44 72 51 60 40 30 26 26 23 19 30 38 47 48 50 55 55 53 57 65 66 62 71 58 60 74 78 78 76 69 62 62 54 66 83
40 41 39 37 30 35 33 34 41 40 41 49 40 48 35 26 24 24 20 24 28 37 53 54 56 59 59 64 72 66 66 57 62 72 79 74 76 71 65 63 58 67 78 92
44 46 35 42 39 38 37 35 37 38 35 39 38 38 32 28 29 31 32 33 33 34 38 42 46 51 52 54 60 68 60 57 77 81 77 76 74 67 67 61 71 88 89 90
47 61 62 48 50 42 58 44 39 35 36 35 38 33 28 31 33 38 34 31 32 32 31 31 32 32 39 47 52 55 59 67 78 81 79 79 75 73 67 78 84 98 97 94
61 63 74 74 60 67 40 34 34 38 35 34 35 34 39 42 39 37 35 34 35 35 35 34 34 34 34 34 37 50 65 73 79 82 82 80 77 74 76 83 92 96 99 97
58 75 81 71 74 53 39 34 35 33 33 34 43 48 48 47 42 45 39 36 36 37 37 37 38 39 40 42 47 60 76 82 83 83 79 79 79 83 88 94 99 98 98 82
62 73 75 85 70 70 51 38 26 34 53 36 40 46 49 45 57 63 48 43 41 41 42 43 44 46 50 49 56 66 80 84 83 80 80 82 89 91 96 98 100 81 63 58
87 86 83 96 78 67 46 34 26 38 45 38 36 37 41 51 46 48 49 46 46 46 48 50 55 57 58 65 73 77 82 82 78 74 81 96 100 99 100 84 63 58 56 54
70 87 87 90 75 63 39 37 35 41 42 35 37 37 44 49 54 52 52 52 55 58 61 62 61 64 69 76 78 76 76 78 85 92 95 99 99 92 78 65 55 48 42 42
56 67 76 69 68 48 44 35 30 32 34 39 40 46 43 54 56 57 58 61 62 63 63 64 62 65 68 70 72 77 82 87 94 96 86 73 65 58 52 42 39 38 39 38
56 59 66 62 63 68 61 45 36 36 38 43 46 52 52 52 60 62 65 66 66 67 66 66 65 69 73 80 82 83 80 65 54 48 44 40 36 36 37 37 38 40 41 44
65 63 75 87 78 73 69 58 52 52 54 56 62 59 56 55 64 64 67 68 68 70 74 77 78 80 75 66 59 55 50 45 42 40 42 44 48 47 44 47 54 58 60 65
61 67 76 81 70 58 67 68 62 58 62 62 60 65 67 65 66 70 73 76 78 82 85 81 76 71 70 59 53 53 52 48 46 45 49 50 52 52 58 65 61 66 76 85

GFSCGP_850_rhum_042.txt.gz
RH
39 42 44 37 35 31 32 35 36 33 23 39 44 38 62 68 75 84 82 80 71 64 59 60 57 55 49 55 55 63 70 71 58 46 73 92 95 90 89 84 74 65 66 70
40 48 36 35 37 38 34 32 33 31 25 34 32 39 52 68 66 77 78 75 66 63 65 62 59 62 56 52 49 51 55 69 56 59 73 82 77 86 87 82 82 64 72 79
42 32 33 35 31 34 32 31 32 34 32 23 30 34 33 46 61 68 71 62 68 69 62 61 61 54 50 46 51 52 56 68 69 63 71 76 96 100 90 89 70 66 74 82
41 35 34 34 34 32 32 30 32 34 35 34 28 36 35 37 58 62 65 68 64 63 67 61 61 58 52 51 56 63 63 67 71 68 69 68 76 84 91 83 67 71 77 79
37 39 40 40 36 32 32 31 33 34 36 37 35 37 31 40 46 58 54 59 59 59 58 56 54 51 53 54 56 63 69 72 63 69 71 71 85 87 84 78 73 79 80 77
33 32 34 34 30 32 30 31 40 47 48 52 40 41 41 42 37 36 44 51 51 55 54 48 49 56 56 57 58 62 64 66 66 67 71 71 83 87 91 83 77 84 83 79
35 35 31 33 32 34 34 42 56 54 65 56 43 50 46 31 28 33 38 39 39 48 50 48 46 53 52 52 58 62 64 69 73 70 62 66 71 90 95 91 84 88 82 80
43 42 36 34 32 38 37 41 61 50 62 48 47 54 37 30 34 35 33 28 26 40 43 47 42 46 50 50 53 60 68 68 66 70 68 72 77 97 96 96 94 95 79 78
49 41 37 36 36 32 38 43 38 70 73 78 54 44 28 35 48 48 42 38 32 38 42 42 44 42 46 51 50 55 60 60 64 67 73 81 88 97 100 100 100 98 86 84
38 33 38 38 37 34 32 38 45 58 52 53 50 43 41 30 32 47 48 44 45 42 43 45 47 44 42 43 48 52 52 55 60 67 75 86 93 86 73 70 94 89 92 87
42 32 33 41 41 39 42 40 44 46 56 54 64 48 36 28 31 36 45 41 40 39 43 40 42 45 47 51 52 50 57 67 71 75 84 91 85 78 68 71 64 67 82 88
40 42 43 36 36 34 33 40 43 64 43 65 75 55 29 28 30 29 30 36 37 39 40 47 49 48 48 50 55 56 63 64 55 62 81 76 71 70 68 62 90 94 89 87
46 47 46 40 36 37 38 39 43 54 62 63 71 53 28 30 25 21 26 29 35 34 40 47 55 56 51 52 58 59 55 53 54 58 59 60 64 64 80 86 84 82 79 64
33 52 41 42 37 39 43 40 48 48 71 56 60 41 32 30 30 26 20 20 23 38 37 42 47 52 63 66 67 56 54 54 56 58 64 68 68 82 84 82 78 74 66 65
40 44 47 38 33 36 35 36 46 44 44 49 41 49 38 34 28 26 24 27 30 32 44 49 52 54 61 64 67 56 57 61 63 63 64 79 88 82 81 78 69 59 61 78
47 46 36 44 41 40 42 40 44 42 39 43 41 40 36 31 33 36 36 41 44 46 47 45 42 41 42 47 52 57 64 75 83 86 96 94 86 77 78 72 61 64 78 83
50 61 59 48 49 42 60 47 43 40 42 41 49 41 36 35 43 41 39 36 37 37 35 32 31 30 31 32 34 45 53 65 83 93 94 92 89 82 74 68 73 88 97 100
63 60 68 75 62 58 38 37 36 44 41 38 35 35 36 39 39 39 38 37 37 36 36 36 36 36 37 37 37 40 49 69 83 92 96 94 88 82 76 86 94 100 99 100
62 72 78 70 73 51 39 38 40 39 36 39 40 49 49 46 47 55 45 42 41 42 42 41 41 43 43 44 46 51 60 74 84 89 91 89 85 85 90 99 99 99 100 92
62 70 69 82 70 70 52 40 28 30 45 40 48 60 60 52 56 67 54 50 48 46 45 47 49 51 56 56 64 71 76 85 88 89 88 88 88 92 97 100 99 99 92 69
85 84 76 94 78 71 52 35 27 40 47 38 42 48 51 51 42 52 54 49 47 49 52 55 59 61 63 74 84 81 84 85 86 88 87 90 99 99 99 99 94 82 64 56
75 85 87 86 81 71 38 37 41 42 30 32 38 41 44 40 50 52 52 52 55 57 61 65 64 69 78 81 79 80 80 83 88 96 100 100 99 91 82 69 58 51 45 41
63 67 75 71 71 51 41 34 27 27 32 34 32 37 35 41 51 54 56 61 64 64 65 68 67 71 76 79 83 82 90 93 92 85 70 63 55 49 45 40 39 38 40 44
59 58 65 60 58 63 54 44 36 29 31 32 32 34 37 39 55 59 64 67 67 68 68 68 68 71 77 80 80 78 74 59 47 38 34 34 34 35 39 41 44 47 51 62
65 64 75 71 78 74 66 55 43 38 38 38 42 43 46 48 61 63 69 71 72 71 72 74 74 74 71 64 57 50 44 40 37 37 39 43 46 48 46 50 57 62 68 82
68 68 72 63 53 49 48 46 48 46 48 48 47 58 58 56 59 68 71 72 73 75 80 78 74 67 63 55 49 47 44 40 41 46 49 55 60 63 62 54 38 27 19 14

GFSCGP_850_rhum_045.txt.gz
RH
38 35 37 33 34 29 31 33 31 28 25 36 40 38 40 75 84 79 74 81 78 53 54 55 56 52 50 57 62 67 69 69 71 57 43 49 61 62 82 86 83 73 63 62
37 41 35 34 36 36 35 33 32 29 26 29 29 27 33 62 71 71 70 75 62 56 58 61 62 54 49 42 49 59 66 72 72 60 40 46 63 79 92 85 82 79 69 67
40 30 37 37 33 37 34 32 34 32 30 26 29 27 32 51 61 65 74 74 76 74 59 59 62 59 55 46 44 49 58 63 70 65 53 53 75 85 86 80 90 87 77 70
38 35 35 36 35 32 36 29 32 33 32 30 27 27 28 35 54 58 57 70 70 63 56 55 56 58 56 54 52 49 54 59 61 73 61 55 64 71 72 80 84 87 76 73
36 38 39 39 35 32 32 34 34 34 35 37 34 31 26 36 35 47 53 59 64 50 51 52 53 54 54 51 47 47 53 56 58 66 74 66 69 71 77 81 94 92 75 75
33 34 35 35 33 33 32 33 38 42 40 43 37 33 30 29 29 29 32 50 56 49 42 46 52 59 54 55 53 52 54 60 66 72 78 81 82 77 83 96 99 85 78 78
37 36 32 33 34 35 33 36 43 49 53 48 44 43 31 27 27 28 29 30 42 53 48 46 49 50 57 57 58 54 54 58 66 74 80 75 79 81 88 98 96 89 84 80
36 35 35 36 32 35 39 36 51 46 50 41 46 42 24 29 28 41 40 34 34 38 44 47 45 45 47 45 51 56 57 58 64 60 69 76 76 76 80 89 89 89 91 86
47 38 35 37 35 31 37 40 37 58 69 61 41 35 25 31 31 37 41 38 37 32 32 34 44 48 48 44 42 46 52 55 58 58 60 65 80 80 70 77 88 93 97 96
40 35 40 39 37 38 35 35 44 50 54 56 41 40 25 25 27 33 38 40 33 32 36 40 42 42 46 49 48 52 56 56 58 61 64 66 72 82 77 84 93 86 90 97
40 34 35 42 40 36 42 40 44 40 46 46 46 34 32 27 25 30 36 35 35 34 34 35 39 45 48 49 47 49 54 54 52 55 61 66 71 83 90 87 78 75 97 100
39 45 46 35 36 34 35 39 40 53 46 55 56 40 27 30 26 29 28 35 33 33 32 35 38 41 43 46 49 48 49 50 52 62 62 62 58 61 67 72 69 72 89 100
45 44 42 34 34 37 38 38 41 49 56 54 69 40 27 28 28 25 28 28 34 34 31 33 35 35 37 38 40 46 49 54 56 61 60 60 59 62 67 71 73 99 100 100
31 47 41 36 34 37 46 42 43 43 57 51 48 36 30 26 27 25 24 22 21 33 43 51 55 54 57 54 54 56 57 59 60 63 62 66 69 74 87 100 100 96 99 100
41 43 46 37 31 36 36 39 45 40 42 48 38 40 30 29 28 28 26 27 37 45 57 59 61 60 62 63 66 69 73 77 79 82 81 85 97 98 99 93 92 90 80 72
48 45 49 42 43 39 41 38 42 42 40 40 37 38 30 30 32 36 36 45 50 52 52 51 51 52 51 48 48 50 53 59 68 79 92 100 100 95 88 84 82 78 75 77
53 60 56 50 49 42 57 47 42 40 40 38 44 33 34 33 36 43 47 45 48 44 38 34 33 32 33 34 36 40 46 57 70 83 94 96 96 89 83 82 78 75 78 92
59 59 62 68 62 65 37 38 35 39 39 36 36 32 33 35 46 45 44 44 44 42 40 38 37 37 37 39 40 42 45 54 67 80 92 96 94 89 84 80 81 93 98 99
55 66 73 74 60 47 36 37 39 40 28 33 34 34 40 52 55 59 48 46 42 42 42 42 44 45 46 47 49 50 52 62 73 83 90 91 88 84 83 86 92 99 100 99
64 62 62 72 63 64 46 36 33 29 42 32 36 46 50 54 51 49 54 50 48 48 49 51 54 55 55 55 61 65 69 79 84 88 88 89 89 88 90 99 99 100 99 88
74 73 66 75 72 59 44 36 28 44 39 34 40 48 52 47 42 46 53 53 52 55 57 59 61 60 64 72 77 72 80 82 86 88 89 91 96 99 99 100 94 75 63 58
68 76 80 75 77 60 42 36 42 41 28 27 40 46 53 39 51 54 57 57 62 61 63 64 64 67 75 78 75 77 77 82 86 93 99 99 96 84 71 62 53 48 43 41
73 63 65 57 60 50 36 31 25 24 24 29 36 45 44 45 60 61 63 66 66 65 66 71 68 71 77 81 83 83 92 96 92 81 69 58 48 41 38 38 39 39 42 47
64 60 66 59 53 52 41 33 32 28 28 28 36 38 41 42 58 62 68 70 69 71 72 73 73 76 82 82 79 76 74 62 49 40 38 38 39 40 41 44 47 52 56 58
65 65 69 62 57 69 55 45 36 36 33 35 37 40 42 39 58 62 68 70 72 73 75 75 74 76 75 71 63 55 48 46 40 36 36 38 39 40 40 36 25 14 10 10
65 62 69 64 43 44 34 30 37 38 34 36 34 45 48 44 50 64 70 73 75 77 78 76 74 69 63 57 50 46 42 40 38 40 38 30 19 10 7 7 7 7 8 10

GFSCGP_850_rhum_048.txt.gz
RH
28 26 25 18 18 17 20 19 17 19 20 26 23 20 20 43 53 48 44 47 52 59 62 75 70 73 73 79 91 93 96 97 89 96 82 69 76 85 93 90 69 76 77 72
30 28 21 24 26 25 25 22 20 21 21 23 17 17 17 32 42 43 38 41 42 50 59 69 77 73 72 74 82 85 87 95 98 95 85 72 68 80 86 90 79 79 76 68
24 22 26 26 26 28 27 23 22 22 22 20 20 18 20 26 36 44 42 38 40 43 54 64 70 77 80 75 84 82 83 91 99 98 95 83 79 89 93 91 79 82 78 75
23 21 26 26 26 25 27 21 22 24 24 23 21 22 16 21 29 38 44 46 46 44 48 55 66 73 77 79 78 81 84 89 95 99 95 87 69 78 89 96 91 79 87 82
24 28 30 27 24 24 23 22 24 24 23 24 22 23 17 23 21 25 31 36 42 42 42 46 54 65 73 77 81 78 78 82 92 95 95 94 79 71 81 98 98 82 81 86
20 26 24 21 25 24 24 27 26 27 26 35 20 22 18 16 16 14 16 27 35 41 43 42 45 56 64 73 80 89 84 84 89 94 90 92 94 82 83 100 89 75 79 88
24 23 21 26 26 28 26 27 35 39 40 38 28 27 18 16 16 19 19 19 23 34 42 46 46 53 63 73 84 70 58 78 77 72 59 58 65 82 92 81 82 81 82 91
26 29 24 22 22 24 26 25 34 45 41 32 32 29 19 17 18 23 29 30 31 29 34 41 48 50 59 72 85 82 58 56 68 56 58 68 72 74 78 85 84 80 85 93
24 22 22 25 24 21 30 33 24 36 50 43 25 22 16 17 18 19 24 29 29 30 32 38 40 47 58 70 83 84 85 85 84 57 59 67 63 61 80 89 86 89 99 100
23 26 28 31 28 30 27 24 36 33 46 42 28 25 18 16 16 16 16 21 30 40 39 40 43 47 56 67 82 92 93 89 90 79 65 70 80 81 87 94 87 90 92 99
19 22 36 34 32 27 33 32 31 29 32 37 36 25 16 15 16 19 20 22 25 36 44 50 52 56 63 69 79 87 78 88 92 89 86 71 72 77 86 91 95 93 94 93
21 24 29 27 26 25 20 23 27 35 32 33 35 29 15 16 18 20 20 24 28 34 42 52 60 66 68 74 76 74 78 82 86 93 92 95 87 86 88 93 96 89 98 96
26 28 32 29 28 28 26 24 23 27 34 32 52 31 19 19 20 20 19 23 31 37 40 50 62 66 70 74 78 81 80 86 87 92 76 70 72 72 71 78 79 91 96 98
26 22 26 31 22 19 29 25 22 26 37 30 33 24 20 18 17 16 20 21 23 30 44 49 60 65 74 80 86 88 75 74 69 72 75 78 81 88 95 99 99 98 99 98
27 27 25 20 17 16 18 18 22 26 26 29 27 24 20 18 18 16 22 28 32 35 48 55 59 66 76 85 89 90 92 77 78 81 87 91 100 98 99 99 96 92 98 100
30 28 26 29 22 22 21 18 17 22 19 22 24 22 17 18 21 23 25 32 38 48 57 62 65 69 70 74 83 70 65 65 72 82 86 91 96 95 89 85 85 85 82 77
40 33 35 33 30 30 51 33 24 22 25 26 27 22 17 20 22 23 29 36 44 54 59 63 65 57 46 42 42 44 48 54 62 71 81 90 90 88 86 84 83 80 78 80
45 42 40 42 65 77 23 24 21 23 22 21 22 19 19 20 23 32 35 44 49 53 60 58 45 40 40 40 42 46 50 54 63 73 82 88 89 88 85 83 82 82 83 89
42 43 53 74 48 29 30 30 29 30 24 18 20 18 17 28 38 46 46 47 51 60 65 62 52 48 48 48 48 49 55 62 68 77 83 83 85 84 87 83 85 93 98 99
48 49 52 60 52 76 26 21 23 23 34 17 18 21 22 34 40 27 58 62 64 65 64 62 60 58 58 63 66 64 67 72 81 88 89 95 97 98 98 97 99 99 99 99
67 64 71 59 63 38 27 26 25 36 32 20 19 22 30 36 28 42 59 66 66 64 64 66 73 71 70 76 75 71 79 84 90 93 95 91 90 95 98 98 95 86 81 63
58 65 80 56 81 68 30 29 29 24 34 27 31 29 35 38 57 60 64 68 69 69 66 76 78 82 88 87 81 87 86 94 91 84 90 98 98 93 77 63 52 45 58 50
54 46 47 44 42 32 32 23 26 31 25 33 30 34 40 59 59 63 67 71 73 75 78 83 85 87 90 90 90 91 94 90 89 89 81 65 48 37 34 46 49 74 83 89
44 48 55 52 29 33 36 30 35 34 32 34 34 39 53 54 62 66 71 73 74 75 77 84 88 90 90 89 85 75 78 78 64 50 40 40 33 44 35 48 43 53 39 23
36 50 44 44 35 45 44 41 34 42 39 33 38 46 51 56 63 67 71 74 73 77 84 84 88 91 89 80 73 67 61 66 55 38 33 35 37 29 28 23 9 8 9 7
44 44 55 49 32 39 28 34 42 44 47 42 46 54 55 58 61 68 72 74 78 82 84 89 92 84 77 67 57 52 52 48 36 35 30 18 11 9 10 21 49 16 10 10

GFSCGP_850_rhum_051.txt.gz
RH
19 21 21 17 15 13 13 13 12 14 16 19 22 18 29 29 31 34 36 36 40 48 53 66 70 73 73 71 84 90 92 92 93 92 83 67 76 77 76 86 91 87 92 72
21 25 16 17 18 18 16 17 14 16 15 18 20 18 17 22 28 28 31 33 36 40 50 60 70 68 69 69 78 83 83 84 91 88 77 67 60 66 65 73 84 89 91 96
23 18 17 19 19 18 17 19 19 20 26 14 15 15 12 13 21 26 26 27 29 35 44 56 60 62 68 67 73 77 81 89 91 89 74 69 62 61 67 70 83 92 95 97
20 15 20 20 20 16 19 15 18 17 18 20 18 22 24 14 19 23 25 24 25 29 37 46 58 60 62 63 69 73 74 73 76 79 74 71 65 59 63 70 75 98 80 74
20 18 22 22 20 16 18 18 18 17 19 19 27 21 23 15 16 18 24 26 26 27 31 39 48 55 61 64 65 71 70 70 70 74 78 77 74 63 65 74 79 91 96 75
16 15 17 18 17 17 16 21 20 20 20 31 20 22 20 19 13 13 14 20 26 27 29 33 38 46 53 60 66 68 70 67 68 72 83 80 75 72 61 68 79 89 97 100
19 19 17 18 22 21 20 23 35 37 32 36 20 18 16 30 13 12 13 14 18 24 28 30 32 38 48 56 65 70 70 64 67 72 78 85 82 82 77 68 84 93 92 98
25 25 19 18 19 24 22 22 36 53 46 34 24 23 16 15 13 13 14 17 17 19 25 28 30 33 41 51 62 71 70 70 65 76 86 89 91 90 89 84 84 90 93 96
22 21 13 15 16 17 23 26 19 29 34 40 26 17 20 14 11 13 14 18 20 21 22 24 30 33 38 48 59 70 73 73 75 81 74 66 98 98 98 86 98 93 96 76
16 23 15 17 17 17 20 21 29 30 47 49 23 20 18 16 14 12 12 14 21 27 25 24 27 30 38 44 58 72 80 78 80 84 88 91 97 96 77 84 99 98 74 91
15 19 22 24 26 23 26 29 25 25 28 50 36 24 14 14 13 13 13 14 15 24 32 33 33 33 34 39 52 68 77 77 74 76 91 100 99 81 78 93 99 99 100 100
16 20 29 28 18 16 18 23 24 35 36 29 31 30 14 14 12 14 14 15 16 19 29 40 43 46 46 50 54 66 75 77 75 78 85 93 98 98 98 99 98 98 98 98
19 22 32 27 25 22 25 23 21 24 25 34 54 32 14 13 14 13 14 14 17 21 24 36 48 52 55 59 62 68 74 72 72 77 83 92 99 100 100 99 99 99 99 100
25 22 27 31 24 21 25 21 18 22 40 33 27 21 18 16 15 14 14 15 17 22 24 27 37 50 57 63 67 70 79 80 84 87 93 98 99 100 100 100 98 98 99 100
29 28 23 19 17 16 17 18 18 20 22 30 24 20 17 15 14 13 14 15 16 18 22 29 34 43 54 67 74 81 98 98 99 90 96 99 99 99 98 99 100 100 100 99
24 31 26 24 18 17 18 15 14 14 16 17 17 17 13 12 13 14 17 18 19 22 25 31 40 49 62 73 79 96 97 100 100 100 94 93 97 99 96 92 92 97 90 87
34 35 31 36 21 21 35 20 16 15 14 16 21 16 13 14 13 14 15 18 22 29 38 46 52 60 66 77 86 88 90 92 92 88 88 84 83 83 83 85 86 95 91 86
40 34 35 48 61 60 25 16 16 18 16 14 15 14 14 13 12 16 18 21 30 41 48 54 59 64 69 72 77 80 80 83 83 83 79 81 82 84 89 97 90 84 84 90
35 43 53 62 50 28 20 20 20 20 18 13 14 14 13 13 19 25 26 29 39 45 50 52 56 62 66 68 70 71 74 77 79 81 82 86 89 96 98 100 98 98 89 98
32 41 58 55 55 58 29 18 16 15 31 14 13 14 15 16 32 20 33 40 44 50 53 57 61 63 66 68 68 68 70 73 77 81 85 90 94 98 99 92 96 98 97 96
64 62 77 66 58 35 19 16 16 36 33 15 15 14 17 18 21 28 38 48 52 53 57 62 62 64 68 70 71 72 77 80 84 88 92 89 89 90 95 97 94 87 81 78
68 64 82 64 67 68 22 22 28 24 19 20 19 18 20 22 40 44 48 51 53 57 63 61 66 71 73 73 74 76 80 86 93 94 86 85 91 90 87 82 72 66 67 76
56 52 54 44 40 30 28 24 22 18 19 24 22 22 25 36 44 47 49 52 56 59 60 64 69 74 75 74 77 80 88 91 90 91 88 84 74 66 65 65 71 64 72 79
30 28 44 42 32 28 30 30 24 26 25 26 26 25 30 41 45 48 50 54 56 56 60 65 72 75 77 78 80 85 86 84 81 77 74 72 68 66 63 58 49 49 54 34
28 26 36 36 28 25 26 33 34 29 30 30 32 29 33 43 46 49 52 55 54 56 62 70 74 78 80 79 79 77 74 71 70 70 67 65 51 48 42 44 32 21 9 6
26 34 49 46 23 34 33 29 30 32 32 40 36 34 40 43 47 51 54 56 56 60 68 73 79 81 81 80 77 75 72 67 65 62 57 50 34 29 41 44 41 26 22 12

GFSCGP_850_rhum_054.txt.gz
RH
19 21 21 18 18 18 15 14 14 16 18 19 24 24 44 37 27 28 32 37 43 50 60 74 75 78 80 82 88 70 72 70 82 81 63 76 85 78 60 65 67 84 79 72
20 25 17 15 16 18 17 17 15 12 16 16 13 17 37 36 54 28 31 34 39 44 57 72 72 74 78 80 76 82 71 63 74 80 74 65 80 76 61 69 86 76 78 75
24 19 17 16 19 18 16 16 15 20 22 16 14 15 13 31 38 25 29 30 34 40 53 64 71 74 74 83 86 82 82 79 79 78 82 75 68 62 69 70 76 72 88 85
19 16 18 20 20 17 19 12 14 19 21 22 18 25 14 15 18 22 23 26 30 35 46 59 64 71 69 74 74 81 82 83 86 75 82 80 70 61 65 63 69 70 80 79
21 18 19 21 19 16 18 17 18 15 17 18 20 28 20 16 18 20 23 22 25 29 40 52 59 66 70 69 71 72 76 79 76 78 70 79 69 64 59 63 65 72 82 75
17 14 15 16 16 16 15 19 21 19 20 33 20 24 30 21 20 19 18 21 22 24 33 43 53 57 62 64 70 69 72 74 74 81 73 77 76 68 65 62 67 72 77 79
19 16 14 15 19 17 18 22 36 40 39 42 21 23 21 24 22 15 19 19 22 23 26 34 44 53 58 60 61 68 70 73 72 71 72 75 72 83 70 65 66 72 74 77
25 28 16 16 20 22 24 24 37 55 64 44 39 32 20 18 17 14 12 13 16 23 25 28 33 45 51 57 62 63 68 72 71 69 69 69 66 72 79 77 65 76 83 82
26 24 14 16 16 17 24 29 20 29 42 54 43 31 22 18 15 11 13 13 15 17 24 28 28 32 44 49 55 63 68 70 68 66 63 55 50 68 70 80 84 76 83 92
21 29 17 15 15 17 19 20 32 28 54 58 30 27 27 20 14 12 12 14 17 22 22 20 24 28 33 44 50 56 62 68 69 64 64 63 55 66 62 77 95 93 92 86
19 25 23 16 19 20 20 25 30 28 29 49 50 33 25 20 14 14 13 13 14 20 26 26 24 25 30 35 50 59 65 67 68 74 62 74 77 71 71 95 98 99 99 91
19 25 31 22 16 16 17 23 26 43 38 37 54 43 16 19 14 14 14 13 14 17 28 32 33 32 33 36 45 54 63 67 70 72 69 74 84 90 100 90 99 100 95 99
21 27 37 28 23 20 22 21 22 26 30 41 76 44 15 15 14 13 13 14 14 18 25 36 41 43 41 39 42 59 69 72 69 72 70 82 88 82 97 99 98 99 99 98
23 27 31 39 39 26 28 21 26 29 47 43 46 34 25 16 16 13 14 14 13 17 19 30 41 46 50 53 54 59 69 73 71 72 76 84 85 94 97 99 100 100 100 100
30 35 32 23 20 21 22 22 22 24 23 49 43 26 18 16 19 21 20 17 15 15 20 23 34 46 55 60 63 69 73 72 74 75 80 88 95 98 98 99 98 99 98 99
29 38 32 34 21 22 22 19 18 18 18 17 19 22 15 13 14 22 21 18 16 16 16 18 28 42 55 64 70 78 83 82 85 89 100 100 99 98 99 99 100 100 100 100
38 37 38 45 28 25 35 23 18 16 16 16 21 18 14 14 13 13 13 13 16 17 18 21 28 39 57 69 77 90 94 97 96 89 87 99 98 96 94 97 93 87 86 84
37 39 39 55 60 56 25 17 17 19 17 14 13 12 12 13 12 12 13 16 17 22 29 36 44 56 62 76 89 91 94 96 92 91 89 87 85 86 89 95 97 88 86 89
39 51 65 64 56 36 25 22 21 23 22 16 16 14 12 12 16 17 20 21 22 31 41 49 57 65 74 78 83 82 85 85 82 79 82 86 84 90 93 99 99 99 99 97
41 50 71 72 64 67 39 24 16 18 35 18 15 18 16 14 30 23 23 26 34 42 50 54 60 66 70 72 73 74 77 78 79 80 83 85 88 96 98 99 100 98 93 94
70 77 90 76 74 48 24 21 18 38 39 20 16 16 16 22 21 21 24 35 42 46 49 54 60 62 66 68 68 70 72 74 77 81 87 90 91 86 90 92 87 88 80 81
68 83 90 74 82 79 25 23 31 29 21 20 19 18 16 19 23 28 33 40 44 49 52 58 60 62 65 66 67 70 74 78 83 83 83 83 82 85 85 85 80 70 71 71
64 52 72 53 51 46 31 26 23 20 24 22 21 20 20 25 35 38 42 46 48 50 57 58 62 66 68 69 71 76 81 87 91 91 81 84 80 78 74 70 67 69 74 81
37 35 51 51 34 36 42 41 27 27 28 26 25 25 24 30 38 42 46 47 49 52 57 59 66 70 71 70 73 80 87 89 89 87 82 72 65 64 64 65 57 61 53 36
36 31 43 40 36 34 28 31 31 32 29 29 29 30 28 31 40 44 47 49 52 54 55 61 69 71 73 75 79 86 88 84 78 74 72 70 65 58 48 45 34 24 17 10
25 27 40 52 33 39 36 38 31 31 30 32 32 33 33 31 42 45 47 51 52 53 58 66 70 74 77 80 80 78 75 71 70 68 68 60 47 42 43 39 32 24 21 15

GFSCGP_850_rhum_057.txt.gz
RH
21 32 35 30 26 23 22 24 23 18 18 21 45 57 53 44 56 62 59 59 61 69 72 72 71 81 88 87 85 90 97 97 89 99 88 68 67 58 56 56 48 42 44 49
28 33 25 21 20 21 23 24 24 19 22 21 28 58 48 53 53 49 50 56 56 71 76 77 71 68 68 66 64 76 80 81 87 76 69 69 60 60 61 54 41 60 68 74
32 28 21 22 22 24 23 24 24 22 22 21 23 30 48 45 55 41 46 49 53 60 71 77 75 64 62 66 59 58 56 59 63 57 59 61 65 54 61 47 57 75 73 74
29 22 23 23 24 22 26 21 18 18 26 37 24 39 28 53 59 66 49 44 50 64 62 66 68 68 69 68 63 56 55 62 61 60 58 57 55 73 76 65 52 66 77 75
28 26 26 26 25 22 24 22 24 23 27 24 27 36 32 41 55 62 49 40 45 57 58 64 62 53 61 69 78 69 61 59 61 65 69 72 76 71 59 61 65 65 72 77
24 18 20 22 20 20 19 22 22 28 31 46 32 33 35 29 23 30 31 36 40 50 57 56 55 56 61 71 78 81 75 71 73 74 70 83 95 82 73 62 64 66 65 73
27 25 19 17 22 21 22 28 49 57 54 59 33 38 32 27 27 22 29 28 34 40 54 58 63 64 60 67 80 81 79 77 79 74 74 72 72 82 76 66 61 61 66 70
37 42 24 18 21 25 27 33 60 56 70 60 43 46 32 26 22 17 14 23 23 34 44 50 53 54 56 56 65 76 75 74 79 80 75 78 68 68 76 76 69 64 65 67
36 34 18 16 18 22 31 37 30 41 46 66 54 41 30 27 24 22 15 18 22 25 39 44 46 47 52 55 54 58 65 69 72 76 76 78 74 68 69 73 67 70 71 81
28 39 22 19 18 22 24 25 40 41 59 64 48 45 44 30 25 20 16 17 16 21 25 36 46 45 44 45 47 52 56 58 58 65 70 71 74 72 71 74 75 72 63 78
22 31 33 23 24 27 30 29 31 39 53 65 62 52 28 28 27 21 16 15 19 22 23 25 31 45 43 41 44 47 54 60 66 66 64 71 70 69 75 73 75 79 81 87
24 32 37 30 22 19 22 28 32 66 55 56 66 58 26 23 24 19 16 14 14 18 24 21 26 31 37 46 43 48 56 63 62 66 73 72 72 76 92 88 78 78 86 99
29 30 46 38 27 22 24 24 26 31 51 55 77 64 27 24 21 18 15 14 16 23 27 26 25 35 36 44 53 55 55 78 64 75 69 72 72 64 91 88 84 94 99 98
26 31 31 45 39 30 34 26 24 33 57 47 64 47 36 33 26 16 18 17 15 20 28 26 27 28 37 43 51 63 69 70 61 74 70 72 79 90 87 80 75 100 99 100
34 34 28 30 29 28 30 31 27 29 33 48 45 42 33 30 26 22 21 18 18 18 31 31 33 32 38 50 54 61 56 58 59 61 63 76 89 83 84 90 94 99 99 100
39 45 36 36 29 31 34 33 30 26 31 33 35 36 28 21 20 20 17 18 18 17 20 31 36 42 44 52 57 62 69 70 66 64 67 72 87 100 96 94 99 98 98 99
68 51 56 49 34 33 49 34 30 31 25 26 30 27 21 23 21 26 17 16 19 18 17 19 36 47 55 55 47 63 73 73 80 83 88 98 99 97 96 98 99 100 100 99
97 74 63 74 58 63 35 27 24 26 24 20 19 18 18 17 14 14 16 16 19 18 18 18 28 46 56 60 66 70 73 81 92 98 99 100 99 98 92 89 85 86 85 81
85 84 84 68 62 46 35 26 26 28 31 20 20 19 18 14 16 22 18 18 18 20 24 28 37 48 60 65 68 76 89 90 92 92 90 91 83 79 78 84 92 88 84 95
87 86 86 94 76 66 46 36 27 25 42 22 22 25 22 19 34 32 21 19 24 25 29 35 44 62 72 84 85 87 90 92 92 84 78 78 77 76 83 91 96 100 94 95
97 99 99 100 99 74 38 29 24 42 44 24 22 22 22 30 33 19 21 23 24 28 38 49 57 63 75 83 84 84 84 83 79 72 73 75 77 80 83 83 95 90 90 92
80 92 98 95 99 90 48 38 34 38 22 23 19 20 19 20 20 23 24 28 34 38 47 50 56 65 73 76 77 78 77 78 78 79 80 82 86 88 82 84 85 87 92 84
82 68 83 75 82 59 46 54 54 50 61 34 30 30 33 30 25 25 28 34 38 42 50 56 60 66 69 71 72 73 76 78 79 81 84 88 92 88 85 84 84 84 78 67
48 51 62 63 54 43 33 36 27 45 54 49 42 33 31 36 37 33 31 39 45 49 53 57 61 65 67 68 69 70 76 78 80 85 90 87 82 90 84 74 67 66 72 78
54 48 52 57 50 52 42 31 27 30 43 41 37 37 30 34 36 39 39 43 47 50 55 58 63 66 68 71 74 76 79 83 86 88 84 80 76 72 71 70 67 70 70 56
41 40 68 81 56 48 47 38 40 34 36 38 42 39 35 36 36 37 41 44 49 52 57 60 67 70 72 74 79 85 88 89 88 85 74 67 65 63 62 58 45 35 24 16

GFSCGP_850_rhum_060.txt.gz
RH
22 30 33 34 33 28 27 30 32 26 26 35 42 43 51 61 57 69 70 85 83 73 77 64 68 80 99 98 95 99 94 88 81 80 74 71 66 60 62 60 56 69 76 69
28 34 26 27 28 29 29 31 30 24 24 25 48 45 45 57 62 64 66 76 78 77 85 73 71 77 91 97 92 90 81 72 71 75 74 69 70 70 67 62 65 70 56 47
32 29 24 27 28 30 28 30 30 26 20 24 48 44 52 48 49 50 53 62 68 66 76 70 72 70 84 87 83 82 81 83 75 84 84 80 77 70 70 80 70 54 46 39
33 24 26 30 29 27 34 25 24 25 28 38 26 42 50 56 57 56 55 61 67 68 67 63 57 65 69 64 70 82 88 85 82 82 84 70 72 66 61 57 51 48 41 50
39 32 32 32 29 25 29 26 27 26 28 28 27 37 35 53 54 50 53 56 61 64 61 64 55 46 49 54 51 65 79 78 70 81 74 66 62 60 54 51 49 41 37 53
32 24 25 27 24 25 23 24 25 34 37 49 34 36 39 68 50 42 44 51 54 63 62 59 55 50 49 54 54 51 51 48 51 52 52 52 50 52 51 48 48 41 38 49
30 30 24 23 27 25 24 33 50 54 54 58 35 43 37 27 32 41 41 48 47 56 63 67 65 65 56 54 61 57 53 51 50 50 50 51 51 47 49 56 56 56 60 60
37 47 29 24 27 28 31 35 60 56 68 57 45 50 37 27 26 26 35 36 41 49 59 63 58 58 55 50 54 66 65 58 56 57 57 60 64 65 70 72 74 70 61 59
46 41 24 23 23 23 31 39 32 45 54 67 57 46 32 28 28 24 28 36 39 45 56 53 56 54 56 56 50 48 55 63 66 59 60 60 60 61 66 76 84 85 71 63
33 44 29 23 22 23 26 30 43 54 57 64 53 45 46 34 32 27 25 24 31 39 46 50 48 47 52 52 52 49 45 50 50 57 60 58 61 69 75 76 75 80 77 74
32 34 34 30 30 30 32 35 37 43 58 63 64 54 39 34 33 24 23 17 19 27 34 44 48 51 48 48 58 52 50 49 57 62 65 70 72 72 78 83 76 88 88 80
33 39 43 33 25 23 22 30 35 57 56 63 71 60 31 29 26 19 19 20 22 22 24 29 34 39 51 52 56 63 56 55 52 79 90 93 92 88 77 76 76 76 97 94
63 45 49 44 30 25 28 30 28 38 54 52 71 60 33 28 28 21 19 17 20 17 27 29 32 34 39 43 49 51 57 63 84 91 88 78 72 71 75 65 73 75 74 79
66 62 52 46 37 34 33 32 27 33 64 50 59 46 43 36 31 30 23 18 18 19 19 20 26 35 39 40 45 51 59 67 74 86 84 73 79 77 72 76 65 71 74 84
78 89 49 39 29 28 33 32 32 32 39 48 42 45 38 38 33 30 22 20 18 23 25 24 23 26 26 22 36 49 57 63 67 75 79 80 80 66 73 76 66 66 98 100
78 92 69 50 35 29 30 32 31 30 33 37 36 46 32 28 25 27 25 19 18 18 22 28 25 28 28 24 21 43 58 65 67 78 76 74 74 71 84 95 94 99 100 99
83 97 97 85 38 36 49 37 32 36 36 36 46 38 32 31 28 29 24 22 19 16 18 24 28 27 28 26 24 26 57 60 66 71 63 59 68 85 98 99 100 100 97 95
86 92 98 97 67 74 39 32 30 34 32 30 29 26 27 25 19 19 21 19 16 15 16 19 28 28 32 34 34 36 50 63 71 80 81 94 100 100 100 99 99 99 98 97
79 89 100 99 89 54 48 42 39 38 33 28 26 22 20 16 18 22 16 18 16 14 14 18 20 29 40 47 52 57 62 70 70 75 81 96 99 98 98 100 100 100 100 99
85 85 91 99 97 96 49 37 30 27 49 28 25 27 26 22 35 35 19 16 16 17 19 19 21 28 47 58 64 66 69 77 85 89 94 100 100 100 100 98 85 81 85 83
95 100 96 97 97 87 55 55 27 49 42 27 27 25 25 32 32 16 20 21 18 18 18 21 26 34 56 65 72 72 80 91 97 98 95 97 99 94 81 78 80 81 87 88
80 92 97 99 98 96 59 58 55 60 54 56 52 45 34 23 19 19 20 20 22 24 28 32 36 53 61 70 79 90 94 95 95 94 91 91 86 82 82 82 85 95 93 93
78 67 81 72 76 53 59 52 55 52 48 46 50 47 45 37 28 24 26 26 27 24 26 34 45 59 73 78 82 86 89 90 90 89 85 85 88 92 95 92 98 97 98 96
47 53 69 75 54 54 38 40 41 37 35 32 40 46 38 46 36 34 31 33 34 35 41 49 61 67 71 76 76 79 78 81 80 81 85 92 97 100 100 98 94 96 96 88
40 57 57 62 52 46 40 39 38 38 32 34 32 41 44 41 42 34 34 40 40 44 52 56 59 63 69 74 77 78 76 76 78 83 91 99 100 100 95 90 94 84 82 80
62 70 76 62 50 47 41 23 25 35 32 35 36 41 45 40 40 42 43 42 47 45 55 59 64 67 70 72 74 77 79 79 80 88 97 98 94 93 84 76 76 80 79 79

GFSCGP_850_rhum_063.txt.gz
RH
29 36 39 32 33 30 28 32 35 31 25 37 47 40 48 65 78 70 85 90 81 78 70 73 68 78 99 98 96 98 99 100 100 95 94 93 88 88 84 71 55 57 50 62
32 37 29 28 32 32 34 36 35 30 26 35 36 41 46 71 66 63 74 85 79 80 73 77 58 66 96 99 98 98 97 100 94 92 83 76 99 85 79 60 58 53 53 61
40 32 26 29 33 34 35 36 34 32 27 27 42 45 46 50 57 61 68 67 77 69 68 68 50 54 76 79 97 100 99 93 88 86 92 98 92 76 65 60 55 53 52 74
37 28 29 31 31 33 38 30 30 31 34 39 33 50 33 51 60 60 63 66 73 67 63 69 55 51 48 49 69 89 95 87 78 81 80 86 86 75 66 60 57 56 64 60
44 37 33 33 32 30 34 29 33 35 35 32 32 40 33 56 61 56 56 59 63 59 56 59 56 40 39 44 45 68 80 76 70 70 70 69 72 69 63 59 64 64 60 57
35 28 31 31 27 28 27 30 33 38 42 53 39 38 42 60 46 46 42 55 54 63 57 54 58 57 44 43 42 50 70 70 72 72 70 73 80 73 66 68 59 55 53 55
34 36 28 24 30 29 32 35 56 57 57 54 38 44 33 30 42 35 39 43 51 58 62 56 60 61 50 42 43 42 53 57 66 69 72 72 75 67 68 67 63 57 50 50
40 46 30 30 32 33 38 38 63 59 63 54 45 57 39 32 26 24 26 36 43 58 59 57 52 54 57 43 38 38 40 44 48 52 53 57 59 61 60 53 50 46 45 44
44 39 26 23 25 28 38 44 33 44 55 72 59 49 34 28 27 29 27 36 45 53 55 52 53 53 54 53 42 38 39 38 38 36 35 36 39 46 47 52 50 49 47 49
37 46 32 26 26 28 29 32 44 57 58 66 54 54 45 34 29 30 28 36 40 43 46 45 55 57 52 49 50 46 44 42 39 42 44 43 43 46 48 49 49 50 58 73
34 38 37 31 35 34 36 40 41 43 58 52 56 57 42 35 32 36 33 22 28 37 39 40 40 47 49 53 58 56 49 52 52 49 51 52 54 55 57 61 64 66 75 78
50 48 50 37 27 25 29 35 38 53 56 67 64 45 33 35 32 32 23 20 19 21 29 33 37 46 55 53 57 60 58 54 54 65 67 71 68 64 63 66 68 72 80 87
62 75 68 49 38 32 33 31 31 44 55 53 66 52 36 36 32 27 25 19 20 24 24 32 41 45 47 46 51 56 61 61 65 81 87 85 84 84 74 81 76 63 80 83
67 76 78 84 55 40 38 32 29 39 54 47 46 42 38 34 33 30 24 20 19 20 18 26 30 30 33 37 40 45 50 61 73 78 84 85 66 63 57 67 68 78 77 73
79 88 91 85 69 54 46 35 32 33 38 47 40 45 35 38 36 31 23 20 22 20 19 22 29 26 28 31 36 39 44 55 67 76 83 81 74 73 79 82 76 78 83 81
79 84 91 82 64 62 54 36 31 37 36 41 37 43 35 32 29 33 28 24 25 20 17 17 25 30 30 28 26 25 31 42 56 65 70 74 85 85 75 83 87 89 96 99
88 90 92 75 77 66 67 50 38 30 28 39 46 39 32 36 37 34 28 24 24 20 17 16 19 27 31 26 22 21 20 29 42 58 66 74 78 80 80 85 99 99 100 100
91 91 96 98 80 89 63 43 40 34 30 34 36 34 32 32 26 24 23 24 22 22 20 18 16 17 26 30 27 25 27 32 51 59 66 73 78 85 89 100 100 100 100 100
78 92 99 93 86 67 50 47 44 44 40 31 32 30 27 22 21 21 18 16 13 13 15 17 16 15 18 29 35 39 40 46 61 68 70 78 73 98 100 100 100 100 100 100
89 81 88 100 94 85 40 40 28 44 59 36 33 29 27 25 38 35 16 15 14 13 17 18 16 17 20 28 39 51 53 55 66 64 63 70 96 99 99 100 100 100 100 100
98 99 97 98 96 86 60 72 64 89 67 62 61 56 34 34 29 21 19 17 17 15 16 17 19 19 20 28 43 55 61 67 67 67 79 98 99 99 100 100 100 100 99 100
95 98 99 97 99 90 66 64 91 78 64 52 50 50 57 47 32 28 18 19 21 20 20 26 26 25 29 37 48 64 72 74 84 98 100 100 100 100 100 100 100 100 100 97
76 63 83 81 75 56 55 46 40 46 75 59 52 45 46 45 44 40 30 31 35 25 19 20 22 24 30 44 62 74 87 92 96 100 100 100 100 100 100 100 97 99 98 96
51 56 70 70 54 52 44 38 50 58 61 56 45 45 43 44 44 42 43 34 36 46 36 32 45 52 60 78 87 93 90 92 98 100 100 100 100 100 100 100 100 100 100 100
52 50 48 47 51 44 45 39 39 37 42 45 51 45 38 39 39 48 44 44 44 38 45 57 57 61 68 75 84 91 95 92 95 97 97 97 100 100 99 100 100 100 100 100
93 84 89 85 83 98 65 48 46 40 48 49 48 42 46 33 35 42 45 46 48 55 60 62 67 70 73 76 83 86 88 85 84 88 94 99 100 100 100 99 98 100 100 99

GFSCGP_850_rhum_066.txt.gz
RH
40 47 51 41 35 31 32 33 34 32 27 27 38 51 38 60 79 82 82 81 82 78 84 86 79 96 95 85 84 98 100 100 100 100 100 99 85 72 94 84 76 65 52 54
38 47 36 33 33 34 33 35 38 32 27 31 33 36 41 62 72 74 78 78 70 76 85 86 83 97 99 89 89 89 98 98 100 100 99 88 99 99 84 71 68 73 61 56
39 36 30 32 37 36 38 39 38 29 32 29 35 43 37 43 62 61 64 63 61 66 70 77 77 64 84 84 88 97 94 93 94 95 99 99 94 92 90 72 78 71 58 63
42 32 31 33 33 32 38 34 32 33 38 45 35 52 36 32 49 62 62 61 51 54 64 73 70 58 52 61 73 88 99 98 98 100 96 92 93 88 83 69 83 66 59 59
44 40 38 37 33 31 31 32 36 36 42 38 36 48 38 51 42 49 59 52 50 45 47 54 60 61 44 45 52 60 76 95 92 89 90 86 85 82 80 82 66 57 60 59
36 33 34 31 28 30 28 34 37 41 48 62 44 43 46 36 43 34 41 41 39 42 41 44 55 63 58 44 51 53 61 74 83 83 82 87 85 88 78 72 65 62 59 58
34 38 30 27 34 34 33 40 58 60 64 66 42 46 35 31 30 34 31 29 28 35 39 41 48 55 58 52 40 46 48 56 67 70 74 75 83 84 84 71 61 58 56 55
45 48 37 33 33 37 42 44 67 62 66 54 48 54 40 33 29 23 24 25 29 36 38 37 34 45 52 51 45 36 36 40 49 57 63 67 70 72 73 76 72 68 61 61
47 42 26 29 29 28 42 49 36 46 56 70 56 50 39 34 32 29 29 27 27 35 39 34 32 34 48 48 48 42 34 36 40 45 55 64 67 71 72 75 71 66 63 65
37 45 34 28 26 29 34 35 47 60 59 67 56 56 46 28 26 26 31 31 26 36 38 40 37 32 37 44 46 49 44 36 34 40 48 57 64 66 66 69 65 62 61 63
37 43 43 34 35 39 38 40 41 46 61 61 60 50 45 35 32 31 34 27 26 31 31 31 28 28 31 43 49 47 50 48 40 38 40 44 47 52 56 57 58 56 54 52
60 59 59 42 29 28 29 38 43 61 54 72 63 45 30 35 34 35 32 22 20 24 24 26 27 33 36 38 46 46 48 53 52 44 44 42 43 40 39 39 40 42 45 47
62 77 87 56 40 36 38 35 34 46 56 58 66 51 36 36 35 29 30 24 19 20 24 30 35 31 28 32 39 44 48 54 60 59 51 50 48 49 46 48 49 62 55 61
66 73 91 95 95 79 79 60 45 37 50 46 45 42 36 33 34 29 23 22 22 20 21 24 24 23 24 25 28 33 39 54 60 63 65 61 56 55 53 53 60 64 63 72
67 79 87 85 74 72 76 69 62 57 40 47 39 42 37 35 34 32 21 18 22 23 22 20 18 20 21 25 25 27 31 40 50 63 67 66 66 66 63 60 64 72 65 71
80 77 92 92 67 60 66 52 57 55 45 41 44 41 33 31 30 33 27 26 25 22 21 20 18 17 21 19 19 24 28 27 34 46 40 61 74 78 77 76 73 72 79 71
87 89 97 79 75 61 63 67 52 48 51 48 49 39 33 36 38 38 29 25 25 21 20 20 20 17 18 21 21 22 25 31 35 38 47 62 72 76 83 89 88 85 90 91
80 88 95 97 85 84 39 51 42 52 41 35 36 38 35 34 24 21 22 25 23 22 21 22 20 18 17 16 22 26 28 31 39 46 53 60 68 79 83 86 93 99 99 99
83 91 97 96 93 66 50 36 41 44 40 34 48 46 35 29 27 27 23 20 19 16 20 21 16 17 18 16 21 32 32 37 37 44 53 56 62 70 79 85 98 100 99 100
90 81 85 97 98 89 48 55 66 58 67 72 74 67 64 56 43 32 22 19 18 16 17 17 17 20 21 21 19 36 40 41 38 39 54 61 66 73 91 100 99 100 100 100
98 100 94 94 97 84 61 64 68 89 70 69 68 72 68 70 54 47 31 22 22 22 20 18 18 22 22 20 22 39 48 49 50 55 64 77 91 100 100 100 100 100 100 100
88 96 93 98 98 93 58 58 52 65 54 40 46 58 62 62 56 47 48 42 28 22 20 20 22 26 24 27 40 55 60 60 68 83 99 100 100 100 100 99 99 100 100 100
81 76 84 83 82 58 54 42 37 38 40 38 52 45 42 54 55 52 47 50 48 44 49 46 47 37 35 42 54 63 66 88 96 100 100 99 99 100 100 100 100 100 100 100
56 60 72 74 53 56 41 39 36 48 43 35 51 49 41 59 53 54 47 44 48 53 53 58 60 52 47 66 78 89 86 94 99 99 98 100 100 100 100 100 100 100 100 100
60 58 62 62 48 55 36 53 64 64 58 54 54 56 44 48 57 58 50 43 44 51 65 74 80 76 72 81 96 100 100 99 98 99 97 100 100 100 100 100 100 100 100 100
91 89 80 55 96 95 92 83 86 78 74 72 66 67 62 53 62 59 62 53 50 50 58 79 75 96 95 79 98 100 100 100 95 88 97 100 99 99 99 99 98 99 100 100

GFSCGP_850_rhum_072.txt.gz
RH
34 31 35 26 23 19 17 16 16 12 13 18 16 16 14 13 21 25 32 36 46 55 60 76 91 84 59 90 98 99 92 98 100 100 99 96 96 92 80 80 74 44 49 51
34 37 24 22 23 23 20 19 18 14 16 19 13 13 11 14 16 18 19 31 36 48 61 77 89 93 86 71 95 100 95 100 100 100 99 100 100 100 98 82 72 52 56 51
25 22 22 24 29 27 23 22 20 18 15 16 17 15 12 14 15 19 25 26 32 42 59 74 84 90 88 56 81 99 95 99 100 100 100 100 100 100 100 100 84 66 77 61
24 17 22 28 28 24 26 18 21 20 22 22 19 18 13 17 16 14 16 26 32 37 52 66 77 84 86 78 54 90 94 94 92 96 99 93 99 98 91 93 96 95 88 84
27 25 21 23 24 18 22 16 22 22 23 23 21 19 14 15 20 16 13 14 25 36 46 59 70 75 82 83 45 61 81 98 93 98 95 97 100 95 87 79 82 89 90 84
27 26 25 18 21 22 21 24 24 24 24 36 24 20 17 16 18 15 13 13 14 30 41 53 64 74 78 84 72 51 80 93 88 96 97 99 99 99 98 86 84 89 88 84
30 29 25 25 23 20 22 25 35 41 42 39 20 24 19 18 16 16 16 15 16 26 38 47 59 70 75 83 74 76 92 93 97 98 99 95 98 98 96 88 89 85 96 86
41 44 29 25 26 27 25 25 32 41 40 32 27 30 22 17 16 20 20 18 18 23 35 44 52 64 72 81 77 45 84 85 93 97 98 99 100 98 98 93 91 76 84 84
30 29 24 24 25 24 29 32 23 31 36 43 28 25 21 18 18 16 17 19 18 18 26 41 48 61 69 77 82 54 76 79 87 92 96 98 97 99 99 98 99 88 79 83
31 31 22 22 24 24 26 23 40 36 49 47 29 28 25 22 20 15 15 15 16 20 25 36 46 58 66 75 83 72 76 72 79 73 72 84 84 72 88 96 96 92 91 88
28 39 42 29 28 30 31 35 30 29 33 40 40 29 20 20 19 18 18 18 19 22 24 35 43 53 65 70 80 82 84 76 48 40 67 60 59 63 59 61 83 94 97 95
48 45 41 35 26 24 24 29 30 40 38 34 35 32 19 20 22 25 22 18 22 23 21 28 43 53 62 68 73 76 81 80 60 41 36 37 47 55 57 54 55 62 72 94
45 52 40 30 29 32 28 35 35 34 37 43 55 39 20 20 23 24 24 21 20 19 20 24 40 49 58 62 67 70 68 74 80 80 56 46 43 40 36 40 48 68 81 92
51 46 63 48 46 46 57 46 43 42 46 38 35 30 24 22 20 19 19 20 20 19 20 22 26 40 49 56 63 67 71 67 74 78 78 62 46 39 38 40 47 49 56 69
61 48 43 44 37 39 40 39 36 40 38 45 36 35 29 24 23 22 23 25 24 22 21 22 24 25 36 49 58 64 68 66 61 66 65 52 59 59 56 54 57 63 68 64
48 46 55 44 37 37 41 34 33 32 30 35 36 32 23 24 23 22 22 24 25 25 24 22 24 26 27 33 47 58 64 62 56 54 36 48 62 68 69 70 68 81 91 94
51 54 52 52 49 46 52 40 30 27 24 30 34 24 26 27 27 30 35 37 29 28 27 27 25 26 28 23 21 29 36 66 52 37 42 41 55 63 70 83 94 96 96 97
50 55 60 60 66 63 28 26 29 33 26 24 23 30 34 37 42 41 43 48 49 47 42 34 29 28 28 31 28 20 44 52 39 45 48 43 34 46 68 85 86 92 98 100
48 48 66 63 48 35 29 24 24 25 23 33 31 33 35 39 41 32 43 49 54 53 53 48 39 33 25 23 26 31 30 31 48 35 35 48 58 44 60 76 96 95 99 99
50 48 58 64 59 59 33 36 39 34 33 32 36 33 35 38 46 37 44 51 52 52 54 60 56 39 32 25 24 28 28 41 46 33 40 62 71 74 68 74 88 70 87 99
80 73 78 67 66 46 32 25 45 49 52 36 36 35 35 39 39 46 51 46 51 54 57 77 80 71 65 40 29 32 47 43 54 65 75 80 84 81 89 77 80 86 98 100
79 73 80 69 68 75 36 42 48 50 42 41 42 42 43 42 46 49 55 53 54 58 68 85 94 75 62 58 89 76 72 66 65 67 68 66 74 76 78 85 97 100 100 98
66 48 51 46 46 40 48 43 39 59 60 57 61 61 60 58 53 52 56 61 66 72 82 93 100 100 98 95 99 88 69 64 80 90 86 84 90 99 100 100 100 94 100 100
36 31 48 42 33 31 30 40 64 68 69 71 69 69 72 75 70 68 73 76 72 68 75 99 100 100 98 98 99 100 100 100 99 100 99 100 100 100 99 100 99 100 99 99
31 33 39 38 33 32 33 50 71 78 76 77 75 75 75 77 76 82 85 89 95 74 78 98 99 100 100 100 100 100 100 100 100 100 100 100 100 100 100 100 100 100 100 100
34 34 44 42 56 64 58 65 83 83 82 84 83 80 81 84 83 89 96 99 99 84 92 100 100 98 99 100 100 100 100 100 100 100 100 100 100 100 100 100 99 100 99 100

GFSCGP_850_rhum_075.txt.gz
RH
12 21 20 17 17 17 18 17 16 13 10 12 14 12 10 10 10 15 17 20 27 34 38 47 61 64 69 80 96 98 99 98 100 99 99 100 99 97 92 72 66 71 77 60
23 28 18 17 17 20 20 20 18 14 11 15 13 12 9 9 10 11 13 16 21 28 37 47 63 70 74 80 97 95 99 95 99 99 98 100 99 95 98 72 72 62 43 45
42 22 20 20 21 23 23 24 22 19 14 13 16 16 12 10 9 10 11 13 15 22 33 44 58 69 78 78 93 98 94 89 95 100 100 100 100 100 98 88 81 47 45 48
56 32 19 25 25 22 29 19 19 19 19 22 14 20 13 10 9 10 13 14 16 19 26 40 54 64 72 75 85 97 96 93 95 98 96 97 98 98 94 81 78 64 44 48
54 41 29 24 24 20 25 19 19 18 22 23 20 20 16 12 11 11 12 11 13 18 24 37 49 57 66 72 82 86 98 99 98 99 99 98 100 99 100 97 76 79 51 53
31 30 29 22 18 20 19 19 20 19 23 31 23 23 20 14 14 14 11 11 11 16 23 33 44 54 60 67 79 86 91 98 100 99 98 98 99 99 100 100 99 85 60 65
35 38 24 21 24 17 19 24 36 38 36 37 20 23 21 14 13 13 13 12 12 15 22 30 41 51 56 65 76 83 89 90 98 97 98 96 99 98 98 99 91 99 84 69
28 42 32 22 26 26 24 25 33 46 45 33 20 25 18 13 12 13 14 14 13 17 22 26 34 47 54 64 72 79 78 79 89 99 98 98 99 100 100 99 92 96 87 86
28 34 23 24 23 26 33 30 20 29 35 42 30 22 17 16 15 14 14 15 14 15 17 26 30 41 51 61 70 75 68 69 75 92 98 98 98 99 98 100 99 97 87 75
27 31 20 28 25 23 27 26 33 30 52 52 33 25 29 20 18 15 14 14 15 14 17 20 30 37 48 56 66 77 71 64 67 80 88 91 94 97 93 97 96 97 96 77
23 33 34 26 41 32 29 31 32 29 31 45 48 34 18 18 17 17 17 16 16 18 20 23 30 34 45 52 63 75 78 65 65 71 82 86 88 90 94 92 94 91 93 90
24 44 41 34 21 25 24 25 31 43 43 35 36 35 17 18 21 20 21 20 18 19 18 20 26 32 40 51 58 68 76 71 64 69 79 84 87 88 90 91 93 91 91 94
38 38 46 48 35 25 28 26 26 29 32 51 87 40 18 19 18 18 18 19 20 20 18 18 23 32 40 48 54 62 72 74 69 69 76 82 82 84 77 80 89 93 96 92
43 49 41 38 43 34 31 30 33 32 43 38 36 31 24 23 20 18 18 19 21 22 20 18 18 22 35 45 52 57 64 72 74 73 78 83 82 74 71 79 86 91 90 92
42 75 54 45 46 36 37 35 32 33 32 40 38 33 25 22 21 19 20 21 21 21 22 21 20 20 22 35 46 53 56 64 73 75 78 80 81 83 86 86 87 86 89 90
34 40 38 54 34 34 38 34 32 29 28 28 26 27 19 18 20 18 18 23 26 28 26 25 24 24 22 23 35 44 52 57 67 75 78 79 84 88 89 88 89 87 89 88
45 42 36 49 29 37 49 34 30 29 28 27 33 30 21 23 20 24 26 30 38 39 39 39 39 34 28 26 27 30 42 53 62 71 76 77 81 86 89 89 90 91 89 89
47 44 42 51 52 59 26 20 21 24 23 21 20 21 24 25 26 27 26 38 42 44 45 44 44 43 37 34 31 30 32 40 56 65 70 73 77 79 82 89 90 92 93 92
39 44 56 62 47 31 23 19 20 23 21 22 23 25 26 28 30 25 34 39 42 43 45 46 49 61 60 47 38 35 34 35 43 58 66 68 70 74 77 83 86 90 94 95
39 42 52 53 57 48 24 27 29 23 31 27 27 29 29 29 35 27 35 39 42 39 45 51 62 68 79 80 76 64 46 39 42 47 59 65 67 69 73 77 85 90 94 96
64 72 69 62 57 36 23 23 29 42 47 35 33 33 36 38 35 35 34 38 43 44 48 64 77 95 95 99 99 91 68 54 47 45 50 60 65 69 73 70 83 95 100 100
64 76 76 65 82 63 24 27 40 48 44 42 42 42 44 44 42 38 38 40 48 53 58 74 92 93 99 98 98 99 91 87 73 61 56 62 69 71 78 84 92 100 100 99
61 47 50 41 40 31 35 40 47 50 48 48 48 49 51 53 53 53 46 52 63 62 67 79 88 94 99 100 98 99 100 100 99 91 79 75 76 82 87 90 96 99 100 100
34 51 63 75 41 58 36 30 45 55 56 57 58 58 59 62 62 61 64 67 71 73 80 88 87 81 98 100 98 99 100 100 100 100 100 100 100 98 99 100 100 100 100 100
31 31 32 31 27 24 26 44 55 62 60 62 66 68 68 69 67 69 69 77 83 85 95 95 94 98 89 99 100 98 99 100 100 100 100 100 100 100 99 100 100 100 100 100
29 32 40 41 60 56 47 61 71 69 72 75 74 72 73 76 82 80 83 95 96 99 100 100 100 98 96 97 100 89 90 96 100 100 99 100 100 100 100 99 100 100 100 99

GFSCGP_850_rhum_081.txt.gz
RH
18 23 32 28 31 29 29 31 31 25 20 21 21 20 15 13 14 17 16 15 22 27 29 36 41 45 54 56 63 66 55 98 100 92 98 100 94 88 100 100 99 100 91 80
27 27 22 20 17 18 24 28 28 22 19 19 22 23 17 16 16 14 19 17 19 26 31 38 42 47 53 54 62 70 61 72 99 97 98 99 99 89 91 96 98 92 81 80
39 30 24 30 24 26 31 32 30 32 20 20 27 30 23 15 14 12 12 16 16 25 32 40 44 49 53 56 58 70 59 68 90 99 100 100 100 99 99 99 94 88 76 73
39 31 35 38 40 33 41 31 41 53 73 76 50 57 32 19 17 15 13 11 12 18 31 39 45 51 55 56 58 68 59 76 94 97 98 99 98 99 98 91 82 79 70 65
36 43 42 47 43 36 44 48 55 73 89 73 63 54 34 22 21 17 15 13 10 10 31 40 40 40 54 60 56 66 64 79 100 98 99 97 96 99 98 99 92 67 76 64
26 25 36 40 41 48 59 74 64 75 90 100 76 57 39 26 20 18 16 12 11 10 27 33 37 41 55 62 63 65 66 85 98 100 99 99 98 95 98 99 98 94 82 72
30 32 41 51 70 62 75 94 100 99 99 92 45 49 35 23 18 18 19 15 11 10 24 39 44 49 56 61 65 68 69 71 96 99 98 98 93 93 89 86 92 92 68 63
42 49 35 47 55 52 70 89 96 88 92 75 34 41 29 20 16 14 14 13 13 14 19 37 40 45 49 54 60 65 68 63 65 99 99 98 97 97 93 92 88 87 70 56
38 37 21 22 35 43 55 73 66 85 97 98 77 38 20 18 17 17 16 13 18 18 24 34 36 40 46 48 50 57 63 61 65 69 100 98 99 99 98 95 89 88 79 57
37 56 29 26 29 36 41 46 80 98 96 96 56 62 52 24 22 21 21 22 19 20 20 28 34 37 38 39 45 55 56 58 53 62 75 92 84 94 98 90 90 92 91 85
48 57 44 34 39 45 54 60 93 95 83 99 97 82 63 76 35 31 30 26 23 23 21 20 27 35 37 44 47 53 59 60 60 62 70 74 95 98 95 96 92 90 91 96
46 56 58 42 28 29 44 64 71 100 94 75 93 91 74 79 54 31 25 22 22 22 24 25 30 35 43 45 49 51 57 59 62 58 73 79 75 79 99 99 98 95 95 93
40 55 75 57 54 45 55 54 62 86 78 99 100 91 74 69 51 46 38 25 31 35 34 34 30 36 55 55 46 50 53 57 60 63 63 74 79 77 65 80 98 99 99 98
37 51 66 86 97 92 98 70 66 83 100 75 93 72 58 77 66 54 43 37 41 41 40 41 42 38 38 46 68 66 51 56 61 66 67 69 72 74 76 74 75 80 84 98
46 64 60 64 49 49 87 67 93 92 93 96 72 83 57 71 76 68 45 40 43 44 44 44 49 54 50 52 48 55 64 68 61 68 67 64 66 70 76 78 77 83 88 87
48 57 54 59 43 38 48 55 66 74 88 84 72 78 61 43 43 53 53 42 43 43 43 52 57 51 54 58 55 53 51 66 83 68 63 65 66 66 69 74 79 84 89 95
64 66 58 67 46 54 69 50 41 50 70 71 72 46 41 41 53 38 45 42 40 42 61 67 58 52 51 55 52 48 53 54 53 75 82 70 67 68 67 70 77 79 81 89
68 62 62 81 65 78 52 34 31 38 34 29 27 39 41 41 39 38 41 40 50 66 65 62 54 47 48 48 43 48 54 57 58 56 56 77 90 80 73 73 74 75 80 85
61 62 78 83 79 56 36 26 26 25 29 31 24 36 33 39 41 42 39 51 63 68 65 60 57 51 49 50 54 49 47 51 64 67 63 59 69 84 91 82 75 76 82 86
52 60 76 82 87 80 46 35 34 27 55 46 47 50 50 46 66 58 60 61 67 67 65 60 58 58 57 62 73 74 72 68 66 74 79 79 72 73 71 92 87 74 81 85
67 74 80 80 89 76 37 46 36 53 78 57 54 55 55 61 58 61 65 66 68 68 69 73 68 69 82 90 85 76 79 81 82 84 90 90 85 84 77 72 91 92 78 83
73 81 87 88 89 85 42 44 61 82 62 58 59 60 62 61 61 69 72 75 74 73 68 77 76 80 94 98 97 89 83 82 78 76 71 76 87 96 94 91 86 94 96 81
99 65 80 68 70 73 84 79 80 73 77 69 66 64 65 67 68 76 77 79 81 81 80 83 89 99 100 99 98 100 99 90 84 84 79 75 75 80 97 100 100 100 100 99
86 86 88 70 89 91 97 86 77 74 66 70 74 69 69 72 74 84 80 84 84 88 95 99 99 99 99 98 97 98 99 100 98 93 89 86 88 85 78 94 98 100 99 100
78 86 93 89 90 95 99 100 80 75 71 70 68 70 75 74 82 91 90 96 98 96 94 94 94 95 96 98 98 97 96 99 98 98 95 97 98 98 97 89 88 96 99 99
72 91 100 100 99 96 100 97 87 83 80 75 76 80 83 87 96 98 98 99 96 95 94 93 95 99 98 99 99 99 100 100 100 100 100 99 99 99 99 100 96 94 93 95

GFSCGP_850_rhum_087.txt.gz
RH
24 33 36 27 39 38 38 42 44 37 26 40 43 48 37 32 27 29 25 25 23 20 13 15 29 35 42 50 56 57 64 65 57 61 87 76 98 100 99 100 100 99 96 96
29 37 30 24 26 34 39 44 42 28 26 41 52 44 34 32 29 28 27 27 24 22 17 22 34 40 43 45 52 55 62 58 56 58 80 82 87 99 96 96 100 100 100 99
37 30 27 25 26 29 28 30 30 32 50 48 57 41 28 24 28 27 30 29 26 21 23 31 35 38 45 47 47 50 58 54 63 59 87 92 92 99 99 99 100 99 99 100
47 34 31 28 28 28 40 36 39 49 64 70 62 64 40 35 37 38 34 31 26 23 22 29 35 42 42 44 48 52 57 55 57 68 90 95 94 99 98 97 100 100 100 100
48 44 47 46 43 41 49 56 65 69 81 87 78 90 41 43 46 39 38 30 25 22 21 34 34 32 39 45 48 53 58 62 53 68 80 92 94 96 99 100 100 98 100 100
34 24 32 43 64 48 68 66 63 78 87 97 61 76 52 38 33 35 34 30 24 19 20 28 29 43 45 51 54 56 61 62 50 59 85 93 94 96 99 99 95 96 100 100
29 27 41 53 74 69 75 68 89 96 95 81 55 69 55 36 35 38 33 28 22 20 18 26 50 55 48 47 54 56 59 64 46 49 83 97 94 99 98 90 87 100 99 99
40 41 54 54 54 66 78 68 84 94 92 94 56 73 62 48 48 38 32 28 25 23 20 24 32 40 43 45 51 52 56 64 49 44 73 89 96 89 84 81 82 84 97 95
46 35 34 54 51 53 90 93 68 92 87 96 80 64 46 65 66 56 48 40 41 27 19 23 34 46 46 45 43 46 53 61 53 47 60 85 98 96 95 89 84 86 90 93
45 48 41 38 43 46 65 69 93 100 98 98 75 70 82 84 87 72 50 53 54 45 33 40 48 45 46 42 42 48 53 58 55 52 57 65 89 98 97 88 84 82 83 87
53 56 56 42 48 62 73 94 92 92 99 99 96 81 95 93 90 86 70 51 62 61 56 64 70 73 67 56 49 52 58 62 61 59 56 65 75 99 99 97 93 88 86 84
44 65 76 64 43 43 49 72 83 96 94 100 99 90 91 86 79 77 73 58 69 77 72 74 77 75 74 71 72 72 70 77 75 76 77 74 73 94 100 98 97 96 97 87
39 73 74 64 63 70 82 78 71 86 97 98 96 86 80 82 86 81 80 75 75 86 90 95 87 90 86 81 81 80 80 80 80 79 78 78 74 79 85 99 99 98 97 96
40 61 66 72 73 85 85 76 73 81 100 99 94 76 83 84 86 84 88 89 79 82 85 90 95 100 100 100 100 100 96 93 89 85 83 85 86 85 85 75 85 97 98 99
54 57 56 60 63 65 68 66 61 89 94 100 84 90 73 82 85 87 95 92 83 80 82 85 78 83 87 88 94 98 96 91 96 96 95 93 91 91 89 85 83 83 86 89
65 67 71 66 55 57 59 50 55 60 79 95 90 96 68 73 89 91 91 98 87 89 90 89 83 61 66 68 74 78 85 88 100 100 100 100 100 100 96 99 100 93 90 89
68 78 83 81 68 65 69 54 41 70 76 76 95 86 72 85 82 85 90 100 97 99 97 86 93 79 73 65 62 67 76 82 87 98 99 99 100 100 100 99 100 99 100 100
72 81 92 94 72 80 45 31 29 43 60 60 60 64 79 85 97 99 98 97 100 100 88 80 81 80 80 66 65 68 65 64 66 70 75 81 89 92 97 98 100 100 100 100
72 78 85 89 79 58 44 31 51 59 58 58 68 62 84 86 86 97 100 96 100 95 93 83 73 78 83 69 67 63 60 58 58 59 61 62 60 64 70 78 85 90 92 98
83 75 80 91 90 83 48 48 58 49 68 71 67 76 76 72 93 94 95 99 95 92 90 86 72 75 75 69 68 67 68 70 68 72 72 70 69 65 61 59 63 69 77 83
95 90 95 92 87 76 50 77 58 71 79 80 83 78 73 89 83 95 96 95 92 90 96 94 89 88 84 79 75 70 75 75 87 86 83 78 76 74 73 69 65 63 74 80
82 94 98 92 95 86 78 77 66 87 91 87 90 90 91 91 92 92 92 93 90 86 90 92 87 88 87 86 84 82 77 94 95 89 86 83 79 74 71 69 69 69 72 86
91 84 92 78 77 87 89 89 93 92 96 93 91 90 92 93 94 96 94 91 95 98 95 92 90 88 85 86 90 90 93 91 90 88 87 88 86 83 77 72 69 71 73 79
96 99 99 100 94 96 98 94 92 83 89 96 99 91 88 92 93 94 97 99 90 94 91 89 90 87 86 88 89 90 93 95 100 96 92 90 90 89 81 78 76 76 78 87
99 98 100 100 100 99 99 100 96 94 96 92 90 96 100 98 98 96 98 100 99 97 91 89 87 88 90 91 88 88 90 96 100 98 98 96 93 88 86 87 92 96 100 97
98 100 99 99 99 99 98 100 100 97 97 94 92 90 94 92 99 100 100 100 100 99 98 93 93 95 95 95 94 94 93 94 96 95 94 93 92 89 88 92 95 93 94 93

GFSCGP_850_rhum_090.txt.gz
RH
26 34 41 39 37 37 42 46 45 39 32 30 36 37 47 36 34 33 28 24 21 20 19 20 17 16 29 45 46 55 61 67 68 76 82 76 77 88 100 100 100 100 84 99
30 39 31 27 32 37 42 47 49 37 28 42 46 43 36 35 33 28 28 26 22 20 21 20 20 18 24 42 46 58 64 64 64 65 77 68 66 83 98 97 100 100 96 89
36 30 29 28 30 35 36 42 35 35 43 42 59 32 28 24 25 25 26 24 24 23 23 23 23 23 32 39 41 52 60 62 63 58 71 82 78 100 99 99 100 100 98 92
40 30 29 30 29 28 33 29 32 50 52 62 64 65 35 28 26 29 29 30 28 26 24 23 25 31 36 34 43 52 55 57 65 59 65 67 70 96 94 92 94 98 97 98
51 48 46 40 33 30 42 49 55 67 75 86 81 72 44 33 28 24 22 30 31 29 26 22 22 19 23 63 47 49 54 58 62 58 58 73 82 89 90 98 96 99 97 99
42 27 34 46 72 47 66 59 73 84 83 97 71 68 44 35 31 48 46 32 30 26 27 22 20 29 34 49 74 52 52 58 57 56 54 71 84 90 97 100 100 98 100 100
30 28 41 59 78 67 57 60 87 81 81 87 56 71 48 36 37 67 57 43 36 31 29 22 26 34 39 50 62 57 51 57 55 55 50 58 83 90 94 99 100 100 98 100
43 39 47 54 48 71 74 60 81 79 92 83 60 89 65 55 69 72 69 58 57 45 30 22 22 23 30 45 52 54 52 58 56 58 47 53 78 94 97 98 100 100 99 99
42 36 42 53 57 50 89 79 64 80 85 97 67 70 54 71 70 68 73 74 66 72 52 26 23 25 29 48 44 48 50 59 55 58 47 53 73 87 98 97 98 87 88 96
44 52 48 53 47 63 57 68 85 94 97 92 81 82 85 85 83 74 76 76 78 90 62 33 30 31 48 61 77 57 56 60 55 61 52 51 82 84 96 92 91 91 90 94
55 52 59 45 51 75 76 88 90 82 89 95 98 86 84 86 89 87 75 76 83 95 88 57 57 68 77 88 98 73 69 66 62 64 57 54 74 78 98 98 97 95 91 92
49 69 77 64 62 50 56 79 80 92 90 94 99 79 87 86 87 87 82 83 86 97 100 90 78 87 99 99 100 98 91 84 68 66 67 64 63 69 96 98 98 96 90 89
37 73 58 78 67 60 76 77 74 90 98 97 97 82 81 82 82 86 89 91 87 98 100 100 100 100 100 100 100 99 95 83 79 76 76 78 75 75 86 99 97 98 97 95
46 65 58 70 64 71 82 69 69 82 97 92 94 91 72 75 84 81 94 97 89 96 100 100 100 100 100 100 100 100 100 99 91 90 90 94 91 88 84 87 94 99 98 97
53 64 61 60 58 66 65 68 71 88 83 90 71 90 76 70 75 85 97 95 87 97 98 100 100 100 100 100 100 100 100 100 100 100 100 100 99 99 97 98 96 91 90 96
63 78 66 65 56 60 63 58 60 58 57 73 66 79 69 71 72 88 95 98 96 97 100 93 95 92 97 98 100 100 100 100 100 99 99 100 100 100 100 100 100 100 99 96
68 73 72 70 67 62 61 60 41 38 74 79 95 74 73 91 89 84 99 99 100 99 100 100 91 83 76 77 90 91 97 98 99 100 100 100 100 100 100 100 100 100 99 100
75 75 86 91 72 75 41 34 35 53 51 73 69 64 80 96 100 100 100 98 99 100 100 100 98 92 79 82 92 86 73 71 75 82 88 94 96 97 97 95 100 100 100 100
71 80 85 87 83 57 44 42 63 61 54 68 74 69 92 96 89 100 99 100 100 99 100 100 94 91 84 76 84 77 69 73 67 65 66 66 66 65 68 76 87 93 96 97
84 76 80 91 86 86 50 48 67 58 49 91 88 82 90 89 97 96 100 100 97 100 99 98 93 91 84 80 93 94 86 84 78 76 74 71 67 65 64 65 64 65 70 74
96 94 87 91 78 77 60 83 57 65 75 94 89 86 86 93 92 99 100 100 100 100 91 92 88 83 87 90 91 87 99 94 98 92 86 81 75 69 66 65 65 64 67 81
80 94 97 81 90 90 92 79 78 89 96 96 96 95 96 99 100 96 98 97 91 90 86 81 82 83 83 83 84 86 93 100 100 98 90 87 82 78 75 70 68 68 70 77
86 90 95 90 83 92 93 90 97 99 100 99 99 100 99 98 98 99 98 96 95 90 89 90 89 89 86 84 84 93 99 99 99 97 88 84 83 82 80 75 73 71 74 76
89 98 98 100 100 100 100 100 100 99 100 100 99 99 99 98 98 97 97 97 96 94 90 88 89 90 91 87 88 91 98 100 100 98 91 88 83 80 78 75 75 75 76 79
98 96 96 100 98 99 99 99 99 99 99 95 90 93 98 98 99 100 100 100 100 94 91 90 93 93 92 90 89 90 92 99 100 97 94 89 84 80 77 77 80 83 91 89
98 99 96 100 99 99 98 98 98 97 97 97 98 98 97 94 99 100 96 98 93 88 95 97 97 100 100 97 94 91 91 93 94 92 92 91 90 88 85 87 89 91 90 89